Time,TemperatureF,DewpointF,PressureIn,WindDirection,WindDirectionDegrees,WindSpeedMPH,WindSpeedGustMPH,Humidity,HourlyPrecipIn,Conditions,Clouds,dailyrainin,SoftwareType,DateUTC
2013-03-17 00:00:00,73.6,67.8,29.93,West,270,12.0,16.0,86,0.00,,,0.00,meteohub,2013-03-17 04:00:00,
2013-03-17 00:01:00,73.6,67.8,29.93,SW,225,8.0,16.0,86,0.00,,,0.00,meteohub,2013-03-17 04:01:00,
2013-03-17 00:02:00,73.6,67.8,29.93,WSW,248,10.0,16.0,87,0.00,,,0.00,meteohub,2013-03-17 04:02:00,
2013-03-17 00:03:00,73.6,67.8,29.93,West,270,9.0,16.0,87,0.00,,,0.00,meteohub,2013-03-17 04:03:00,
2013-03-17 00:06:00,73.4,67.8,29.93,West,270,9.0,15.0,87,0.00,,,0.00,meteohub,2013-03-17 04:06:00,
2013-03-17 00:08:00,73.4,67.8,29.92,NW,315,6.0,15.0,88,0.00,,,0.00,meteohub,2013-03-17 04:08:00,
2013-03-17 00:09:00,73.4,67.8,29.92,NW,315,7.0,15.0,88,0.00,,,0.00,meteohub,2013-03-17 04:09:00,
2013-03-17 00:12:00,73.4,67.8,29.92,North,0,9.0,15.0,88,0.00,,,0.00,meteohub,2013-03-17 04:12:00,
2013-03-17 00:15:00,73.2,67.8,29.92,NW,315,5.0,15.0,87,0.00,,,0.00,meteohub,2013-03-17 04:15:00,
2013-03-17 00:17:00,73.2,67.8,29.92,NW,315,4.0,11.0,88,0.00,,,0.00,meteohub,2013-03-17 04:17:00,
2013-03-17 00:18:00,73.0,67.8,29.92,NW,315,6.0,11.0,88,0.00,,,0.00,meteohub,2013-03-17 04:18:00,
2013-03-17 00:20:00,73.0,67.8,29.92,NW,315,8.0,9.0,88,0.00,,,0.00,meteohub,2013-03-17 04:20:00,
2013-03-17 00:21:00,73.0,67.8,29.92,NW,315,8.0,9.0,88,0.00,,,0.00,meteohub,2013-03-17 04:21:00,
2013-03-17 00:22:00,72.9,67.8,29.92,NW,315,7.0,9.0,88,0.00,,,0.00,meteohub,2013-03-17 04:22:00,
2013-03-17 00:26:00,72.9,67.8,29.92,North,0,4.0,9.0,88,0.00,,,0.00,meteohub,2013-03-17 04:26:00,
2013-03-17 00:27:00,72.9,67.8,29.92,NW,315,5.0,9.0,88,0.00,,,0.00,meteohub,2013-03-17 04:27:00,
2013-03-17 00:32:00,72.7,68.0,29.92,NW,315,8.0,8.0,88,0.00,,,0.00,meteohub,2013-03-17 04:32:00,
2013-03-17 00:33:00,72.7,68.0,29.92,WNW,293,8.0,8.0,88,0.00,,,0.00,meteohub,2013-03-17 04:33:00,
2013-03-17 00:34:00,72.7,68.0,29.91,NW,315,5.0,8.0,88,0.00,,,0.00,meteohub,2013-03-17 04:34:00,
2013-03-17 00:37:00,72.5,68.0,29.91,NW,315,6.0,8.0,88,0.00,,,0.00,meteohub,2013-03-17 04:37:00,
2013-03-17 00:39:00,72.5,68.0,29.91,NW,315,9.0,9.0,88,0.00,,,0.00,meteohub,2013-03-17 04:39:00,
2013-03-17 00:42:00,72.5,68.0,29.91,NW,315,7.0,9.0,88,0.00,,,0.00,meteohub,2013-03-17 04:42:00,
2013-03-17 00:44:00,72.3,67.8,29.91,WNW,293,6.0,9.0,88,0.00,,,0.00,meteohub,2013-03-17 04:44:00,
2013-03-17 00:47:00,72.3,67.8,29.91,NW,315,5.0,9.0,88,0.00,,,0.00,meteohub,2013-03-17 04:47:00,
2013-03-17 00:48:00,72.3,67.8,29.91,NW,315,4.0,9.0,88,0.00,,,0.00,meteohub,2013-03-17 04:48:00,
2013-03-17 00:50:00,72.3,67.8,29.91,WNW,293,5.0,9.0,88,0.00,,,0.00,meteohub,2013-03-17 04:50:00,
2013-03-17 00:52:00,72.3,67.8,29.91,NW,315,4.0,9.0,88,0.00,,,0.00,meteohub,2013-03-17 04:52:00,
2013-03-17 00:53:00,72.3,67.8,29.91,West,270,5.0,9.0,88,0.00,,,0.00,meteohub,2013-03-17 04:53:00,
2013-03-17 00:54:00,72.3,67.8,29.91,NW,315,7.0,9.0,88,0.00,,,0.00,meteohub,2013-03-17 04:54:00,
2013-03-17 00:57:00,72.3,67.8,29.91,NW,315,6.0,8.0,88,0.00,,,0.00,meteohub,2013-03-17 04:57:00,
2013-03-17 00:59:00,72.3,67.6,29.91,West,270,5.0,8.0,89,0.00,,,0.00,meteohub,2013-03-17 04:59:00,
2013-03-17 01:00:00,72.3,67.8,29.91,NW,315,7.0,8.0,89,0.00,,,0.00,meteohub,2013-03-17 05:00:00,
2013-03-17 01:01:00,72.3,67.6,29.90,NNW,338,4.0,7.0,89,0.00,,,0.00,meteohub,2013-03-17 05:01:00,
2013-03-17 01:04:00,72.3,67.6,29.90,NW,315,5.0,7.0,88,0.00,,,0.00,meteohub,2013-03-17 05:04:00,
2013-03-17 01:05:00,72.3,67.6,29.91,West,270,6.0,7.0,88,0.00,,,0.00,meteohub,2013-03-17 05:05:00,
2013-03-17 01:07:00,72.3,67.6,29.90,NW,315,4.0,7.0,88,0.00,,,0.00,meteohub,2013-03-17 05:07:00,
2013-03-17 01:10:00,72.3,67.6,29.91,NW,315,4.0,7.0,88,0.00,,,0.00,meteohub,2013-03-17 05:10:00,
2013-03-17 01:11:00,72.3,67.6,29.91,NW,315,4.0,7.0,88,0.00,,,0.00,meteohub,2013-03-17 05:11:00,
2013-03-17 01:12:00,72.3,67.6,29.90,NW,315,5.0,7.0,88,0.00,,,0.00,meteohub,2013-03-17 05:12:00,
2013-03-17 01:15:00,72.3,67.6,29.91,West,270,8.0,8.0,88,0.00,,,0.00,meteohub,2013-03-17 05:15:00,
2013-03-17 01:16:00,72.3,67.6,29.91,West,270,8.0,8.0,88,0.00,,,0.00,meteohub,2013-03-17 05:16:00,
2013-03-17 01:17:00,72.3,67.6,29.90,West,270,6.0,7.0,88,0.00,,,0.00,meteohub,2013-03-17 05:17:00,
2013-03-17 01:21:00,72.3,68.2,29.90,NW,315,4.0,8.0,89,0.00,,,0.00,meteohub,2013-03-17 05:21:00,
2013-03-17 01:22:00,72.3,68.2,29.90,NW,315,4.0,8.0,89,0.00,,,0.00,meteohub,2013-03-17 05:22:00,
2013-03-17 01:23:00,72.3,68.2,29.90,NW,315,4.0,8.0,89,0.00,,,0.00,meteohub,2013-03-17 05:23:00,
2013-03-17 01:27:00,72.1,68.2,29.90,NW,315,4.0,8.0,89,0.00,,,0.00,meteohub,2013-03-17 05:27:00,
2013-03-17 01:28:00,72.1,68.2,29.89,West,270,5.0,8.0,89,0.00,,,0.00,meteohub,2013-03-17 05:28:00,
2013-03-17 01:29:00,72.3,68.2,29.90,West,270,4.0,8.0,90,0.00,,,0.00,meteohub,2013-03-17 05:29:00,
2013-03-17 01:32:00,72.1,68.2,29.90,NW,315,4.0,8.0,90,0.00,,,0.00,meteohub,2013-03-17 05:32:00,
2013-03-17 01:34:00,72.1,68.0,29.90,NW,315,6.0,8.0,90,0.00,,,0.00,meteohub,2013-03-17 05:34:00,
2013-03-17 01:36:00,72.3,68.0,29.89,NW,315,4.0,7.0,90,0.00,,,0.00,meteohub,2013-03-17 05:36:00,
2013-03-17 01:38:00,72.1,68.0,29.89,NW,315,8.0,8.0,90,0.00,,,0.00,meteohub,2013-03-17 05:38:00,
2013-03-17 01:39:00,72.1,68.0,29.89,NW,315,6.0,7.0,90,0.00,,,0.00,meteohub,2013-03-17 05:39:00,
2013-03-17 01:40:00,72.3,68.0,29.89,NW,315,5.0,7.0,90,0.00,,,0.00,meteohub,2013-03-17 05:40:00,
2013-03-17 01:43:00,72.3,67.8,29.89,NW,315,5.0,8.0,90,0.00,,,0.00,meteohub,2013-03-17 05:43:00,
2013-03-17 01:46:00,72.1,67.8,29.89,WNW,293,7.0,8.0,90,0.01,,,0.01,meteohub,2013-03-17 05:46:00,
2013-03-17 01:47:00,72.1,67.8,29.89,WNW,293,5.0,8.0,90,0.01,,,0.01,meteohub,2013-03-17 05:47:00,
2013-03-17 01:49:00,72.1,67.8,29.88,NW,315,8.0,8.0,90,0.01,,,0.01,meteohub,2013-03-17 05:49:00,
2013-03-17 01:52:00,72.1,67.8,29.89,NW,315,6.0,8.0,90,0.01,,,0.01,meteohub,2013-03-17 05:52:00,
2013-03-17 01:53:00,72.1,67.8,29.88,NW,315,8.0,8.0,90,0.01,,,0.01,meteohub,2013-03-17 05:53:00,
2013-03-17 01:57:00,72.0,67.8,29.88,West,270,5.0,8.0,90,0.01,,,0.01,meteohub,2013-03-17 05:57:00,
2013-03-17 01:59:00,72.0,67.8,29.88,West,270,4.0,8.0,90,0.01,,,0.01,meteohub,2013-03-17 05:59:00,
2013-03-17 02:02:00,72.0,67.8,29.88,NW,315,5.0,8.0,90,0.01,,,0.01,meteohub,2013-03-17 06:02:00,
2013-03-17 02:04:00,71.8,67.8,29.88,NW,315,6.0,8.0,90,0.01,,,0.01,meteohub,2013-03-17 06:04:00,
2013-03-17 02:05:00,71.8,67.8,29.88,NW,315,6.0,8.0,90,0.01,,,0.01,meteohub,2013-03-17 06:05:00,
2013-03-17 02:07:00,71.8,67.8,29.88,WNW,293,7.0,8.0,90,0.01,,,0.01,meteohub,2013-03-17 06:07:00,
2013-03-17 02:10:00,71.6,67.6,29.88,West,270,5.0,8.0,90,0.01,,,0.01,meteohub,2013-03-17 06:10:00,
2013-03-17 02:12:00,71.6,67.6,29.88,NW,315,6.0,8.0,90,0.01,,,0.01,meteohub,2013-03-17 06:12:00,
2013-03-17 02:13:00,71.6,67.6,29.88,NW,315,5.0,8.0,90,0.01,,,0.01,meteohub,2013-03-17 06:13:00,
2013-03-17 02:17:00,71.4,67.6,29.88,West,270,3.0,8.0,91,0.01,,,0.01,meteohub,2013-03-17 06:17:00,
2013-03-17 02:18:00,71.4,67.6,29.88,North,0,4.0,8.0,91,0.01,,,0.01,meteohub,2013-03-17 06:18:00,
2013-03-17 02:20:00,71.4,67.5,29.87,SW,225,4.0,8.0,91,0.01,,,0.01,meteohub,2013-03-17 06:20:00,
2013-03-17 02:22:00,71.4,67.5,29.87,West,270,4.0,8.0,91,0.01,,,0.01,meteohub,2013-03-17 06:22:00,
2013-03-17 02:24:00,71.4,67.5,29.87,NW,315,5.0,8.0,91,0.01,,,0.01,meteohub,2013-03-17 06:24:00,
2013-03-17 02:25:00,71.4,67.5,29.87,West,270,6.0,6.0,91,0.01,,,0.01,meteohub,2013-03-17 06:25:00,
2013-03-17 02:26:00,71.4,67.5,29.88,NW,315,4.0,6.0,91,0.01,,,0.01,meteohub,2013-03-17 06:26:00,
2013-03-17 02:27:00,71.2,67.5,29.88,West,270,4.0,6.0,91,0.01,,,0.01,meteohub,2013-03-17 06:27:00,
2013-03-17 02:30:00,71.2,67.5,29.88,North,0,6.0,6.0,92,0.01,,,0.01,meteohub,2013-03-17 06:30:00,
2013-03-17 02:32:00,71.2,67.5,29.88,North,0,5.0,6.0,92,0.01,,,0.01,meteohub,2013-03-17 06:32:00,
2013-03-17 02:33:00,71.2,67.5,29.88,NW,315,4.0,6.0,92,0.01,,,0.01,meteohub,2013-03-17 06:33:00,
2013-03-17 02:35:00,71.2,67.5,29.88,NW,315,4.0,6.0,92,0.01,,,0.01,meteohub,2013-03-17 06:35:00,
2013-03-17 02:38:00,71.1,67.5,29.87,West,270,4.0,6.0,92,0.01,,,0.01,meteohub,2013-03-17 06:38:00,
2013-03-17 02:39:00,71.1,67.5,29.87,West,270,4.0,6.0,92,0.01,,,0.01,meteohub,2013-03-17 06:39:00,
2013-03-17 02:41:00,71.1,67.3,29.87,NW,315,4.0,6.0,92,0.01,,,0.01,meteohub,2013-03-17 06:41:00,
2013-03-17 02:44:00,71.1,67.3,29.87,North,0,3.0,6.0,92,0.01,,,0.01,meteohub,2013-03-17 06:44:00,
2013-03-17 02:45:00,71.1,67.3,29.87,NW,315,4.0,5.0,92,0.00,,,0.01,meteohub,2013-03-17 06:45:00,
2013-03-17 02:46:00,70.9,67.3,29.87,North,0,4.0,5.0,92,0.00,,,0.01,meteohub,2013-03-17 06:46:00,
2013-03-17 02:47:00,70.9,67.3,29.87,North,0,4.0,5.0,92,0.00,,,0.01,meteohub,2013-03-17 06:47:00,
2013-03-17 02:50:00,70.9,67.1,29.87,NW,315,3.0,5.0,92,0.00,,,0.01,meteohub,2013-03-17 06:50:00,
2013-03-17 02:52:00,70.9,67.1,29.87,NW,315,4.0,5.0,92,0.00,,,0.01,meteohub,2013-03-17 06:52:00,
2013-03-17 02:54:00,70.5,67.1,29.87,WNW,293,5.0,5.0,92,0.00,,,0.01,meteohub,2013-03-17 06:54:00,
2013-03-17 02:57:00,70.5,67.1,29.87,North,0,6.0,6.0,92,0.00,,,0.01,meteohub,2013-03-17 06:57:00,
2013-03-17 02:58:00,70.5,67.1,29.87,NW,315,6.0,6.0,92,0.00,,,0.01,meteohub,2013-03-17 06:58:00,
2013-03-17 02:59:00,70.5,66.9,29.87,NW,315,7.0,7.0,92,0.00,,,0.01,meteohub,2013-03-17 06:59:00,
2013-03-17 03:03:00,70.5,66.9,29.87,West,270,4.0,8.0,93,0.00,,,0.01,meteohub,2013-03-17 07:03:00,
2013-03-17 03:05:00,70.5,66.9,29.87,NW,315,4.0,8.0,93,0.00,,,0.01,meteohub,2013-03-17 07:05:00,
2013-03-17 03:08:00,70.5,67.3,29.87,NW,315,4.0,8.0,93,0.00,,,0.01,meteohub,2013-03-17 07:08:00,
2013-03-17 03:10:00,70.5,67.3,29.87,NW,315,7.0,8.0,93,0.00,,,0.01,meteohub,2013-03-17 07:10:00,
2013-03-17 03:11:00,70.5,67.6,29.87,WNW,293,6.0,8.0,93,0.00,,,0.01,meteohub,2013-03-17 07:11:00,
2013-03-17 03:12:00,70.5,67.6,29.87,NW,315,4.0,8.0,93,0.00,,,0.01,meteohub,2013-03-17 07:12:00,
2013-03-17 03:14:00,70.5,67.3,29.86,West,270,4.0,8.0,93,0.00,,,0.01,meteohub,2013-03-17 07:14:00,
2013-03-17 03:16:00,70.5,67.3,29.87,NW,315,4.0,8.0,93,0.00,,,0.01,meteohub,2013-03-17 07:16:00,
2013-03-17 03:17:00,70.5,67.3,29.87,NNW,338,5.0,8.0,93,0.00,,,0.01,meteohub,2013-03-17 07:17:00,
2013-03-17 03:19:00,70.5,67.3,29.87,North,0,4.0,8.0,93,0.00,,,0.01,meteohub,2013-03-17 07:19:00,
2013-03-17 03:20:00,70.5,67.6,29.87,West,270,4.0,8.0,93,0.00,,,0.01,meteohub,2013-03-17 07:20:00,
2013-03-17 03:22:00,70.9,67.6,29.86,NW,315,5.0,8.0,93,0.00,,,0.01,meteohub,2013-03-17 07:22:00,
2013-03-17 03:24:00,71.1,67.3,29.86,NW,315,8.0,8.0,93,0.00,,,0.01,meteohub,2013-03-17 07:24:00,
2013-03-17 03:27:00,71.4,67.3,29.86,WNW,293,14.0,14.0,93,0.00,,,0.01,meteohub,2013-03-17 07:27:00,
2013-03-17 03:29:00,71.8,67.3,29.86,NW,315,8.0,10.0,92,0.00,,,0.01,meteohub,2013-03-17 07:29:00,
2013-03-17 03:32:00,72.3,67.3,29.86,WNW,293,13.0,14.0,92,0.00,,,0.01,meteohub,2013-03-17 07:32:00,
2013-03-17 03:36:00,72.9,67.5,29.86,SW,225,11.0,14.0,90,0.00,,,0.01,meteohub,2013-03-17 07:36:00,
2013-03-17 03:37:00,73.0,67.5,29.86,South,180,8.0,14.0,89,0.00,,,0.01,meteohub,2013-03-17 07:37:00,
2013-03-17 03:38:00,73.0,67.5,29.87,West,270,8.0,14.0,89,0.00,,,0.01,meteohub,2013-03-17 07:38:00,
2013-03-17 03:39:00,73.2,67.5,29.87,South,180,9.0,14.0,88,0.00,,,0.01,meteohub,2013-03-17 07:39:00,
2013-03-17 03:42:00,73.2,67.5,29.87,SW,225,7.0,14.0,87,0.00,,,0.01,meteohub,2013-03-17 07:42:00,
2013-03-17 03:43:00,73.2,67.5,29.87,NW,315,9.0,14.0,87,0.00,,,0.01,meteohub,2013-03-17 07:43:00,
2013-03-17 03:45:00,73.4,67.3,29.87,SW,225,10.0,14.0,87,0.00,,,0.01,meteohub,2013-03-17 07:45:00,
2013-03-17 03:46:00,73.4,67.3,29.87,NW,315,11.0,14.0,87,0.00,,,0.01,meteohub,2013-03-17 07:46:00,
2013-03-17 03:48:00,73.6,67.3,29.87,WNW,293,14.0,14.0,86,0.00,,,0.01,meteohub,2013-03-17 07:48:00,
2013-03-17 03:50:00,73.8,67.3,29.87,SW,225,17.0,17.0,85,0.00,,,0.01,meteohub,2013-03-17 07:50:00,
2013-03-17 03:51:00,73.9,67.3,29.87,West,270,13.0,14.0,85,0.00,,,0.01,meteohub,2013-03-17 07:51:00,
2013-03-17 03:53:00,74.1,67.3,29.87,West,270,17.0,17.0,85,0.00,,,0.01,meteohub,2013-03-17 07:53:00,
2013-03-17 03:56:00,74.3,67.3,29.86,SW,225,18.0,18.0,84,0.00,,,0.01,meteohub,2013-03-17 07:56:00,
2013-03-17 03:57:00,74.3,67.3,29.87,South,180,19.0,19.0,84,0.00,,,0.01,meteohub,2013-03-17 07:57:00,
2013-03-17 04:02:00,74.7,67.5,29.86,West,270,11.0,19.0,83,0.00,,,0.01,meteohub,2013-03-17 08:02:00,
2013-03-17 04:05:00,74.7,67.5,29.86,West,270,10.0,19.0,83,0.00,,,0.01,meteohub,2013-03-17 08:05:00,
2013-03-17 04:07:00,74.7,67.5,29.86,West,270,11.0,19.0,84,0.00,,,0.01,meteohub,2013-03-17 08:07:00,
2013-03-17 04:12:00,74.7,67.5,29.87,West,270,14.0,19.0,84,0.00,,,0.01,meteohub,2013-03-17 08:12:00,
2013-03-17 04:13:00,74.7,67.5,29.87,North,0,10.0,19.0,85,0.00,,,0.01,meteohub,2013-03-17 08:13:00,
2013-03-17 04:17:00,74.7,67.5,29.87,WSW,248,11.0,15.0,85,0.00,,,0.01,meteohub,2013-03-17 08:17:00,
2013-03-17 04:18:00,74.5,67.5,29.87,SW,225,8.0,15.0,85,0.00,,,0.01,meteohub,2013-03-17 08:18:00,
2013-03-17 04:22:00,74.3,67.5,29.87,SW,225,11.0,15.0,85,0.00,,,0.01,meteohub,2013-03-17 08:22:00,
2013-03-17 04:24:00,74.7,67.6,29.87,SW,225,15.0,15.0,85,0.00,,,0.01,meteohub,2013-03-17 08:24:00,
2013-03-17 04:25:00,74.7,67.5,29.87,NW,315,15.0,15.0,84,0.00,,,0.01,meteohub,2013-03-17 08:25:00,
2013-03-17 04:27:00,74.7,67.6,29.87,West,270,14.0,17.0,85,0.00,,,0.01,meteohub,2013-03-17 08:27:00,
2013-03-17 04:29:00,74.7,67.6,29.87,NW,315,11.0,17.0,85,0.00,,,0.01,meteohub,2013-03-17 08:29:00,
2013-03-17 04:30:00,74.7,67.6,29.87,NNW,338,8.0,17.0,85,0.00,,,0.01,meteohub,2013-03-17 08:30:00,
2013-03-17 04:32:00,74.7,67.5,29.87,West,270,12.0,17.0,85,0.00,,,0.01,meteohub,2013-03-17 08:32:00,
2013-03-17 04:34:00,74.3,67.6,29.88,NW,315,11.0,17.0,85,0.00,,,0.01,meteohub,2013-03-17 08:34:00,
2013-03-17 04:35:00,74.3,67.6,29.88,West,270,11.0,17.0,86,0.00,,,0.01,meteohub,2013-03-17 08:35:00,
2013-03-17 04:36:00,74.3,67.6,29.88,West,270,11.0,17.0,86,0.00,,,0.01,meteohub,2013-03-17 08:36:00,
2013-03-17 04:40:00,74.1,67.6,29.88,West,270,11.0,17.0,86,0.00,,,0.01,meteohub,2013-03-17 08:40:00,
2013-03-17 04:41:00,74.1,67.6,29.87,SW,225,12.0,16.0,86,0.00,,,0.01,meteohub,2013-03-17 08:41:00,
2013-03-17 04:42:00,74.1,67.6,29.88,SW,225,11.0,16.0,86,0.00,,,0.01,meteohub,2013-03-17 08:42:00,
2013-03-17 04:43:00,74.1,67.6,29.88,WNW,293,11.0,16.0,86,0.00,,,0.01,meteohub,2013-03-17 08:43:00,
2013-03-17 04:47:00,73.9,67.6,29.88,West,270,7.0,15.0,86,0.00,,,0.01,meteohub,2013-03-17 08:47:00,
2013-03-17 04:49:00,73.8,67.6,29.88,NW,315,8.0,15.0,86,0.00,,,0.01,meteohub,2013-03-17 08:49:00,
2013-03-17 04:50:00,73.6,67.6,29.88,West,270,8.0,15.0,86,0.00,,,0.01,meteohub,2013-03-17 08:50:00,
2013-03-17 04:54:00,73.4,67.6,29.88,West,270,8.0,12.0,86,0.00,,,0.01,meteohub,2013-03-17 08:54:00,
2013-03-17 04:55:00,73.2,67.6,29.88,NW,315,6.0,12.0,85,0.00,,,0.01,meteohub,2013-03-17 08:55:00,
2013-03-17 04:59:00,73.0,67.6,29.88,West,270,8.0,12.0,86,0.00,,,0.01,meteohub,2013-03-17 08:59:00,
2013-03-17 05:00:00,73.0,67.6,29.88,West,270,8.0,12.0,86,0.00,,,0.01,meteohub,2013-03-17 09:00:00,
2013-03-17 05:01:00,72.9,67.6,29.88,West,270,6.0,11.0,86,0.00,,,0.01,meteohub,2013-03-17 09:01:00,
2013-03-17 05:02:00,72.9,67.6,29.88,West,270,6.0,11.0,86,0.00,,,0.01,meteohub,2013-03-17 09:02:00,
2013-03-17 05:06:00,72.9,67.6,29.89,NW,315,8.0,11.0,86,0.00,,,0.01,meteohub,2013-03-17 09:06:00,
2013-03-17 05:07:00,72.9,67.6,29.89,West,270,8.0,11.0,87,0.00,,,0.01,meteohub,2013-03-17 09:07:00,
2013-03-17 05:08:00,72.9,67.6,29.89,NW,315,8.0,11.0,87,0.00,,,0.01,meteohub,2013-03-17 09:08:00,
2013-03-17 05:10:00,72.9,67.6,29.88,NW,315,5.0,11.0,87,0.00,,,0.01,meteohub,2013-03-17 09:10:00,
2013-03-17 05:11:00,72.9,67.6,29.88,WNW,293,11.0,11.0,87,0.00,,,0.01,meteohub,2013-03-17 09:11:00,
2013-03-17 05:12:00,72.9,67.6,29.89,NW,315,8.0,11.0,87,0.00,,,0.01,meteohub,2013-03-17 09:12:00,
2013-03-17 05:15:00,72.7,67.6,29.89,NW,315,4.0,11.0,87,0.00,,,0.01,meteohub,2013-03-17 09:15:00,
2013-03-17 05:17:00,72.7,67.6,29.89,NW,315,7.0,11.0,87,0.00,,,0.01,meteohub,2013-03-17 09:17:00,
2013-03-17 05:18:00,72.7,67.6,29.89,West,270,8.0,11.0,87,0.00,,,0.01,meteohub,2013-03-17 09:18:00,
2013-03-17 05:20:00,72.7,67.6,29.89,NW,315,7.0,11.0,87,0.00,,,0.01,meteohub,2013-03-17 09:20:00,
2013-03-17 05:23:00,72.7,67.6,29.89,NW,315,4.0,11.0,87,0.00,,,0.01,meteohub,2013-03-17 09:23:00,
2013-03-17 05:25:00,72.7,67.6,29.89,West,270,6.0,11.0,87,0.00,,,0.01,meteohub,2013-03-17 09:25:00,
2013-03-17 05:27:00,72.7,67.6,29.89,West,270,8.0,11.0,87,0.00,,,0.01,meteohub,2013-03-17 09:27:00,
2013-03-17 05:29:00,72.7,67.6,29.89,West,270,6.0,11.0,87,0.00,,,0.01,meteohub,2013-03-17 09:29:00,
2013-03-17 05:31:00,72.7,67.6,29.89,SW,225,4.0,8.0,87,0.00,,,0.01,meteohub,2013-03-17 09:31:00,
2013-03-17 05:32:00,72.7,67.5,29.89,NW,315,8.0,8.0,87,0.00,,,0.01,meteohub,2013-03-17 09:32:00,
2013-03-17 05:34:00,72.7,67.5,29.89,WSW,248,8.0,8.0,87,0.00,,,0.01,meteohub,2013-03-17 09:34:00,
2013-03-17 05:36:00,72.7,67.5,29.90,NW,315,6.0,8.0,88,0.00,,,0.01,meteohub,2013-03-17 09:36:00,
2013-03-17 05:37:00,72.7,67.5,29.89,NW,315,5.0,8.0,88,0.00,,,0.01,meteohub,2013-03-17 09:37:00,
2013-03-17 05:42:00,72.7,67.5,29.90,NW,315,6.0,11.0,87,0.00,,,0.01,meteohub,2013-03-17 09:42:00,
2013-03-17 05:43:00,72.7,67.5,29.90,NW,315,6.0,11.0,87,0.00,,,0.01,meteohub,2013-03-17 09:43:00,
2013-03-17 05:44:00,72.5,67.5,29.90,West,270,4.0,11.0,87,0.00,,,0.01,meteohub,2013-03-17 09:44:00,
2013-03-17 05:49:00,72.5,67.5,29.90,West,270,8.0,11.0,88,0.00,,,0.01,meteohub,2013-03-17 09:49:00,
2013-03-17 05:50:00,72.5,67.5,29.90,NW,315,6.0,11.0,88,0.00,,,0.01,meteohub,2013-03-17 09:50:00,
2013-03-17 05:55:00,72.7,67.3,29.90,North,0,8.0,9.0,88,0.00,,,0.01,meteohub,2013-03-17 09:55:00,
2013-03-17 05:56:00,72.7,67.3,29.91,NW,315,8.0,8.0,88,0.00,,,0.01,meteohub,2013-03-17 09:56:00,
2013-03-17 05:57:00,72.7,67.3,29.91,NW,315,8.0,8.0,88,0.00,,,0.01,meteohub,2013-03-17 09:57:00,
2013-03-17 06:00:00,72.5,67.3,29.91,North,0,7.0,8.0,89,0.00,,,0.01,meteohub,2013-03-17 10:00:00,
2013-03-17 06:02:00,72.5,67.3,29.91,NW,315,9.0,9.0,89,0.00,,,0.01,meteohub,2013-03-17 10:02:00,
2013-03-17 06:04:00,72.5,67.3,29.91,West,270,11.0,11.0,89,0.00,,,0.01,meteohub,2013-03-17 10:04:00,
2013-03-17 06:05:00,72.5,67.3,29.91,NW,315,8.0,10.0,89,0.00,,,0.01,meteohub,2013-03-17 10:05:00,
2013-03-17 06:06:00,72.7,67.3,29.91,NW,315,10.0,10.0,89,0.00,,,0.01,meteohub,2013-03-17 10:06:00,
2013-03-17 06:07:00,72.7,67.3,29.91,NW,315,11.0,11.0,89,0.00,,,0.01,meteohub,2013-03-17 10:07:00,
2013-03-17 06:12:00,72.5,67.3,29.91,North,0,8.0,11.0,88,0.00,,,0.01,meteohub,2013-03-17 10:12:00,
2013-03-17 06:15:00,72.3,67.3,29.91,West,270,5.0,11.0,88,0.00,,,0.01,meteohub,2013-03-17 10:15:00,
2013-03-17 06:17:00,72.3,67.3,29.91,NW,315,6.0,11.0,88,0.00,,,0.01,meteohub,2013-03-17 10:17:00,
2013-03-17 06:18:00,72.1,67.3,29.91,NW,315,6.0,11.0,89,0.00,,,0.01,meteohub,2013-03-17 10:18:00,
2013-03-17 06:23:00,72.0,67.1,29.92,NW,315,7.0,11.0,89,0.00,,,0.01,meteohub,2013-03-17 10:23:00,
2013-03-17 06:24:00,72.0,67.1,29.91,NW,315,6.0,11.0,90,0.00,,,0.01,meteohub,2013-03-17 10:24:00,
2013-03-17 06:27:00,72.0,67.1,29.92,NW,315,5.0,8.0,90,0.00,,,0.01,meteohub,2013-03-17 10:27:00,
2013-03-17 06:29:00,72.0,67.5,29.91,NW,315,8.0,8.0,90,0.00,,,0.01,meteohub,2013-03-17 10:29:00,
2013-03-17 06:30:00,72.0,67.5,29.91,NW,315,9.0,9.0,90,0.00,,,0.01,meteohub,2013-03-17 10:30:00,
2013-03-17 06:32:00,72.0,67.5,29.91,NW,315,8.0,8.0,91,0.00,,,0.01,meteohub,2013-03-17 10:32:00,
2013-03-17 06:34:00,72.0,67.5,29.92,NW,315,9.0,9.0,91,0.00,,,0.01,meteohub,2013-03-17 10:34:00,
2013-03-17 06:37:00,72.1,67.5,29.92,NW,315,6.0,9.0,91,0.00,,,0.01,meteohub,2013-03-17 10:37:00,
2013-03-17 06:42:00,72.1,67.3,29.92,NW,315,8.0,9.0,90,0.00,,,0.01,meteohub,2013-03-17 10:42:00,
2013-03-17 06:43:00,72.3,67.3,29.92,NW,315,9.0,9.0,90,0.00,,,0.01,meteohub,2013-03-17 10:43:00,
2013-03-17 06:45:00,72.3,67.3,29.92,WNW,293,9.0,9.0,90,0.00,,,0.01,meteohub,2013-03-17 10:45:00,
2013-03-17 06:47:00,72.3,67.3,29.92,North,0,6.0,9.0,90,0.00,,,0.01,meteohub,2013-03-17 10:47:00,
2013-03-17 06:48:00,72.3,67.3,29.92,NW,315,7.0,9.0,90,0.00,,,0.01,meteohub,2013-03-17 10:48:00,
2013-03-17 06:49:00,72.3,67.3,29.92,NW,315,7.0,9.0,90,0.00,,,0.01,meteohub,2013-03-17 10:49:00,
2013-03-17 06:51:00,72.3,67.3,29.93,NW,315,6.0,11.0,90,0.00,,,0.01,meteohub,2013-03-17 10:51:00,
2013-03-17 06:53:00,72.3,67.3,29.92,NW,315,8.0,11.0,90,0.00,,,0.01,meteohub,2013-03-17 10:53:00,
2013-03-17 06:54:00,72.3,67.3,29.92,WNW,293,7.0,11.0,90,0.00,,,0.01,meteohub,2013-03-17 10:54:00,
2013-03-17 06:56:00,72.3,67.3,29.93,NW,315,9.0,11.0,90,0.00,,,0.01,meteohub,2013-03-17 10:56:00,
2013-03-17 06:57:00,72.3,67.3,29.93,NW,315,5.0,11.0,90,0.00,,,0.01,meteohub,2013-03-17 10:57:00,
2013-03-17 06:58:00,72.3,67.3,29.93,NW,315,6.0,11.0,90,0.00,,,0.01,meteohub,2013-03-17 10:58:00,
2013-03-17 06:59:00,72.3,67.3,29.93,NNW,338,6.0,11.0,90,0.00,,,0.01,meteohub,2013-03-17 10:59:00,
2013-03-17 07:02:00,72.3,67.3,29.93,NW,315,6.0,10.0,90,0.00,,,0.01,meteohub,2013-03-17 11:02:00,
2013-03-17 07:03:00,72.3,67.3,29.93,WNW,293,8.0,10.0,90,0.00,,,0.01,meteohub,2013-03-17 11:03:00,
2013-03-17 07:04:00,72.3,67.3,29.93,NW,315,8.0,10.0,90,0.00,,,0.01,meteohub,2013-03-17 11:04:00,
2013-03-17 07:08:00,72.5,67.3,29.94,NW,315,6.0,10.0,89,0.00,,,0.01,meteohub,2013-03-17 11:08:00,
2013-03-17 07:09:00,72.5,67.3,29.93,NW,315,11.0,11.0,89,0.00,,,0.01,meteohub,2013-03-17 11:09:00,
2013-03-17 07:11:00,72.7,67.3,29.94,NNW,338,7.0,10.0,89,0.00,,,0.01,meteohub,2013-03-17 11:11:00,
2013-03-17 07:14:00,72.7,67.3,29.94,North,0,8.0,10.0,89,0.00,,,0.01,meteohub,2013-03-17 11:14:00,
2013-03-17 07:15:00,72.9,67.3,29.94,NW,315,7.0,11.0,89,0.00,,,0.01,meteohub,2013-03-17 11:15:00,
2013-03-17 07:16:00,72.9,67.3,29.94,NW,315,8.0,11.0,89,0.00,,,0.01,meteohub,2013-03-17 11:16:00,
2013-03-17 07:18:00,72.9,67.3,29.94,NW,315,7.0,11.0,89,0.00,,,0.01,meteohub,2013-03-17 11:18:00,
2013-03-17 07:19:00,73.0,67.3,29.94,NW,315,7.0,11.0,88,0.00,,,0.01,meteohub,2013-03-17 11:19:00,
2013-03-17 07:21:00,73.0,67.3,29.94,NW,315,5.0,11.0,88,0.00,,,0.01,meteohub,2013-03-17 11:21:00,
2013-03-17 07:22:00,73.0,67.3,29.94,NW,315,6.0,11.0,88,0.00,,,0.01,meteohub,2013-03-17 11:22:00,
2013-03-17 07:25:00,73.2,67.3,29.94,North,0,8.0,11.0,88,0.00,,,0.01,meteohub,2013-03-17 11:25:00,
2013-03-17 07:27:00,73.0,67.3,29.94,WNW,293,6.0,9.0,88,0.00,,,0.01,meteohub,2013-03-17 11:27:00,
2013-03-17 07:28:00,73.2,67.3,29.94,WNW,293,7.0,9.0,88,0.00,,,0.01,meteohub,2013-03-17 11:28:00,
2013-03-17 07:31:00,74.7,67.3,29.94,NW,315,6.0,8.0,88,0.00,,,0.01,meteohub,2013-03-17 11:31:00,
2013-03-17 07:33:00,75.6,67.3,29.94,NW,315,10.0,10.0,86,0.00,,,0.01,meteohub,2013-03-17 11:33:00,
2013-03-17 07:34:00,75.7,67.3,29.94,NW,315,8.0,8.0,85,0.00,,,0.01,meteohub,2013-03-17 11:34:00,
2013-03-17 07:35:00,75.9,67.3,29.94,NW,315,7.0,8.0,84,0.00,,,0.01,meteohub,2013-03-17 11:35:00,
2013-03-17 07:36:00,76.3,67.3,29.94,South,180,5.0,10.0,83,0.00,,,0.01,meteohub,2013-03-17 11:36:00,
2013-03-17 07:39:00,76.8,67.3,29.94,NW,315,10.0,10.0,81,0.00,,,0.01,meteohub,2013-03-17 11:39:00,
2013-03-17 07:40:00,77.2,67.3,29.94,NW,315,6.0,10.0,79,0.00,,,0.01,meteohub,2013-03-17 11:40:00,
2013-03-17 07:42:00,77.4,67.5,29.94,West,270,7.0,11.0,78,0.00,,,0.01,meteohub,2013-03-17 11:42:00,
2013-03-17 07:46:00,77.9,67.5,29.94,NW,315,10.0,11.0,77,0.00,,,0.01,meteohub,2013-03-17 11:46:00,
2013-03-17 07:47:00,77.9,67.5,29.94,West,270,11.0,11.0,77,0.00,,,0.01,meteohub,2013-03-17 11:47:00,
2013-03-17 07:52:00,77.9,67.6,29.94,WNW,293,8.0,11.0,76,0.00,,,0.01,meteohub,2013-03-17 11:52:00,
2013-03-17 07:53:00,77.9,67.6,29.94,WNW,293,8.0,11.0,76,0.00,,,0.01,meteohub,2013-03-17 11:53:00,
2013-03-17 07:54:00,77.9,67.6,29.95,NW,315,6.0,11.0,76,0.00,,,0.01,meteohub,2013-03-17 11:54:00,
2013-03-17 07:57:00,78.3,67.6,29.95,NW,315,8.0,11.0,76,0.00,,,0.01,meteohub,2013-03-17 11:57:00,
2013-03-17 07:59:00,78.4,67.6,29.95,WNW,293,6.0,11.0,76,0.00,,,0.01,meteohub,2013-03-17 11:59:00,
2013-03-17 08:00:00,78.4,67.6,29.95,WNW,293,6.0,11.0,76,0.00,,,0.01,meteohub,2013-03-17 12:00:00,
2013-03-17 08:03:00,78.4,67.8,29.95,NW,315,8.0,11.0,75,0.00,,,0.01,meteohub,2013-03-17 12:03:00,
2013-03-17 08:04:00,78.4,67.8,29.95,West,270,9.0,11.0,75,0.00,,,0.01,meteohub,2013-03-17 12:04:00,
2013-03-17 08:05:00,78.4,67.6,29.95,NW,315,8.0,11.0,75,0.00,,,0.01,meteohub,2013-03-17 12:05:00,
2013-03-17 08:08:00,78.4,67.8,29.95,WNW,293,7.0,11.0,75,0.00,,,0.01,meteohub,2013-03-17 12:08:00,
2013-03-17 08:09:00,78.4,67.8,29.96,WNW,293,10.0,11.0,75,0.00,,,0.01,meteohub,2013-03-17 12:09:00,
2013-03-17 08:10:00,78.4,67.8,29.95,NW,315,8.0,11.0,75,0.00,,,0.01,meteohub,2013-03-17 12:10:00,
2013-03-17 08:12:00,78.4,67.8,29.95,SW,225,8.0,11.0,75,0.00,,,0.01,meteohub,2013-03-17 12:12:00,
2013-03-17 08:14:00,78.8,67.8,29.96,SW,225,10.0,11.0,74,0.00,,,0.01,meteohub,2013-03-17 12:14:00,
2013-03-17 08:16:00,78.4,68.0,29.96,NW,315,7.0,11.0,75,0.00,,,0.01,meteohub,2013-03-17 12:16:00,
2013-03-17 08:19:00,78.8,68.0,29.95,West,270,11.0,11.0,74,0.00,,,0.01,meteohub,2013-03-17 12:19:00,
2013-03-17 08:20:00,79.2,68.0,29.96,WNW,293,8.0,13.0,74,0.00,,,0.01,meteohub,2013-03-17 12:20:00,
2013-03-17 08:21:00,79.2,68.0,29.96,South,180,5.0,13.0,73,0.00,,,0.01,meteohub,2013-03-17 12:21:00,
2013-03-17 08:23:00,79.3,68.0,29.96,NW,315,14.0,14.0,73,0.00,,,0.01,meteohub,2013-03-17 12:23:00,
2013-03-17 08:24:00,79.5,68.0,29.96,NW,315,10.0,13.0,73,0.00,,,0.01,meteohub,2013-03-17 12:24:00,
2013-03-17 08:28:00,79.5,68.0,29.96,SW,225,9.0,14.0,73,0.00,,,0.01,meteohub,2013-03-17 12:28:00,
2013-03-17 08:29:00,79.5,68.0,29.96,West,270,11.0,14.0,73,0.00,,,0.01,meteohub,2013-03-17 12:29:00,
2013-03-17 08:30:00,79.3,68.0,29.96,WNW,293,8.0,14.0,73,0.00,,,0.01,meteohub,2013-03-17 12:30:00,
2013-03-17 08:32:00,79.5,68.0,29.96,West,270,15.0,15.0,73,0.00,,,0.01,meteohub,2013-03-17 12:32:00,
2013-03-17 08:34:00,79.3,68.2,29.96,SE,135,9.0,14.0,73,0.00,,,0.01,meteohub,2013-03-17 12:34:00,
2013-03-17 08:35:00,79.3,68.2,29.96,SE,135,9.0,15.0,73,0.00,,,0.01,meteohub,2013-03-17 12:35:00,
2013-03-17 08:37:00,79.5,68.2,29.96,NW,315,13.0,15.0,72,0.00,,,0.01,meteohub,2013-03-17 12:37:00,
2013-03-17 08:41:00,79.5,68.2,29.96,NW,315,10.0,15.0,72,0.00,,,0.01,meteohub,2013-03-17 12:41:00,
2013-03-17 08:42:00,79.5,68.2,29.96,NW,315,12.0,15.0,72,0.00,,,0.01,meteohub,2013-03-17 12:42:00,
2013-03-17 08:43:00,79.7,68.2,29.96,SW,225,9.0,15.0,72,0.00,,,0.01,meteohub,2013-03-17 12:43:00,
2013-03-17 08:45:00,79.7,68.2,29.96,West,270,13.0,15.0,72,0.00,,,0.01,meteohub,2013-03-17 12:45:00,
2013-03-17 08:47:00,79.9,67.8,29.96,West,270,12.0,15.0,72,0.00,,,0.01,meteohub,2013-03-17 12:47:00,
2013-03-17 08:48:00,79.9,67.8,29.96,NW,315,12.0,15.0,72,0.00,,,0.01,meteohub,2013-03-17 12:48:00,
2013-03-17 08:50:00,79.9,67.8,29.96,West,270,9.0,15.0,72,0.00,,,0.01,meteohub,2013-03-17 12:50:00,
2013-03-17 08:54:00,79.9,68.0,29.96,West,270,12.0,15.0,72,0.00,,,0.01,meteohub,2013-03-17 12:54:00,
2013-03-17 08:55:00,79.9,68.0,29.96,West,270,11.0,15.0,72,0.00,,,0.01,meteohub,2013-03-17 12:55:00,
2013-03-17 08:57:00,80.4,68.0,29.96,NW,315,11.0,15.0,71,0.00,,,0.01,meteohub,2013-03-17 12:57:00,
2013-03-17 08:59:00,81.0,68.0,29.96,West,270,8.0,15.0,69,0.00,,,0.01,meteohub,2013-03-17 12:59:00,
2013-03-17 09:00:00,81.0,68.0,29.96,West,270,8.0,15.0,69,0.00,,,0.01,meteohub,2013-03-17 13:00:00,
2013-03-17 09:04:00,81.7,68.0,29.96,NW,315,15.0,15.0,66,0.00,,,0.01,meteohub,2013-03-17 13:04:00,
2013-03-17 09:05:00,81.5,68.0,29.96,SW,225,13.0,15.0,66,0.00,,,0.01,meteohub,2013-03-17 13:05:00,
2013-03-17 09:07:00,81.3,68.0,29.96,SW,225,12.0,15.0,66,0.00,,,0.01,meteohub,2013-03-17 13:07:00,
2013-03-17 09:10:00,81.3,68.0,29.97,West,270,16.0,16.0,67,0.00,,,0.01,meteohub,2013-03-17 13:10:00,
2013-03-17 09:11:00,81.1,68.0,29.96,West,270,15.0,16.0,67,0.00,,,0.01,meteohub,2013-03-17 13:11:00,
2013-03-17 09:12:00,81.0,68.2,29.96,South,180,14.0,16.0,67,0.00,,,0.01,meteohub,2013-03-17 13:12:00,
2013-03-17 09:17:00,80.6,68.2,29.97,WNW,293,15.0,16.0,67,0.00,,,0.01,meteohub,2013-03-17 13:17:00,
2013-03-17 09:18:00,80.6,68.2,29.96,SW,225,14.0,16.0,67,0.00,,,0.01,meteohub,2013-03-17 13:18:00,
2013-03-17 09:21:00,81.0,68.2,29.96,NW,315,14.0,18.0,67,0.00,,,0.01,meteohub,2013-03-17 13:21:00,
2013-03-17 09:22:00,81.0,68.2,29.96,West,270,15.0,18.0,66,0.00,,,0.01,meteohub,2013-03-17 13:22:00,
2013-03-17 09:23:00,80.8,68.2,29.96,NW,315,17.0,18.0,66,0.00,,,0.01,meteohub,2013-03-17 13:23:00,
2013-03-17 09:24:00,80.8,68.2,29.96,NW,315,17.0,18.0,66,0.00,,,0.01,meteohub,2013-03-17 13:24:00,
2013-03-17 09:28:00,81.0,68.2,29.96,West,270,11.0,18.0,68,0.00,,,0.01,meteohub,2013-03-17 13:28:00,
2013-03-17 09:29:00,81.0,68.2,29.96,West,270,13.0,18.0,66,0.00,,,0.01,meteohub,2013-03-17 13:29:00,
2013-03-17 09:30:00,81.0,68.2,29.96,SW,225,15.0,18.0,66,0.00,,,0.01,meteohub,2013-03-17 13:30:00,
2013-03-17 09:34:00,81.0,68.4,29.97,NW,315,15.0,18.0,67,0.00,,,0.01,meteohub,2013-03-17 13:34:00,
2013-03-17 09:35:00,80.8,68.4,29.97,West,270,15.0,18.0,67,0.00,,,0.01,meteohub,2013-03-17 13:35:00,
2013-03-17 09:36:00,80.8,68.4,29.97,West,270,15.0,19.0,67,0.00,,,0.01,meteohub,2013-03-17 13:36:00,
2013-03-17 09:40:00,81.0,67.8,29.97,SSW,203,13.0,19.0,68,0.00,,,0.01,meteohub,2013-03-17 13:40:00,
2013-03-17 09:41:00,81.1,67.8,29.96,SW,225,17.0,19.0,68,0.00,,,0.01,meteohub,2013-03-17 13:41:00,
2013-03-17 09:42:00,81.1,67.8,29.97,West,270,11.0,19.0,68,0.00,,,0.01,meteohub,2013-03-17 13:42:00,
2013-03-17 09:47:00,81.3,67.8,29.97,South,180,11.0,17.0,67,0.00,,,0.01,meteohub,2013-03-17 13:47:00,
2013-03-17 09:48:00,81.1,67.8,29.97,South,180,12.0,17.0,68,0.00,,,0.01,meteohub,2013-03-17 13:48:00,
2013-03-17 09:49:00,81.1,67.8,29.97,SW,225,11.0,17.0,68,0.00,,,0.01,meteohub,2013-03-17 13:49:00,
2013-03-17 09:50:00,81.3,67.8,29.97,South,180,11.0,17.0,68,0.00,,,0.01,meteohub,2013-03-17 13:50:00,
2013-03-17 09:52:00,81.7,67.8,29.97,South,180,14.0,18.0,68,0.00,,,0.01,meteohub,2013-03-17 13:52:00,
2013-03-17 09:54:00,81.3,67.8,29.97,WSW,248,14.0,18.0,67,0.00,,,0.01,meteohub,2013-03-17 13:54:00,
2013-03-17 09:55:00,81.1,67.8,29.97,NW,315,15.0,18.0,68,0.00,,,0.01,meteohub,2013-03-17 13:55:00,
2013-03-17 09:58:00,81.0,67.8,29.97,WNW,293,15.0,18.0,68,0.00,,,0.01,meteohub,2013-03-17 13:58:00,
2013-03-17 10:01:00,81.0,68.0,29.97,NW,315,13.0,17.0,69,0.00,,,0.01,meteohub,2013-03-17 14:01:00,
2013-03-17 10:03:00,81.0,68.0,29.97,SW,225,11.0,17.0,68,0.00,,,0.01,meteohub,2013-03-17 14:03:00,
2013-03-17 10:08:00,81.5,68.0,29.97,WSW,248,15.0,16.0,66,0.00,,,0.01,meteohub,2013-03-17 14:08:00,
2013-03-17 10:09:00,81.3,68.0,29.97,West,270,14.0,16.0,66,0.00,,,0.01,meteohub,2013-03-17 14:09:00,
2013-03-17 10:10:00,81.1,68.0,29.97,WSW,248,13.0,16.0,67,0.00,,,0.01,meteohub,2013-03-17 14:10:00,
2013-03-17 10:11:00,81.1,68.0,29.97,WSW,248,11.0,16.0,67,0.00,,,0.01,meteohub,2013-03-17 14:11:00,
2013-03-17 10:13:00,81.5,68.0,29.97,NW,315,11.0,16.0,69,0.00,,,0.01,meteohub,2013-03-17 14:13:00,
2013-03-17 10:14:00,81.7,68.0,29.97,South,180,12.0,16.0,68,0.00,,,0.01,meteohub,2013-03-17 14:14:00,
2013-03-17 10:17:00,81.5,68.0,29.97,NW,315,12.0,16.0,67,0.00,,,0.01,meteohub,2013-03-17 14:17:00,
2013-03-17 10:19:00,81.5,68.0,29.97,SW,225,13.0,16.0,67,0.00,,,0.01,meteohub,2013-03-17 14:19:00,
2013-03-17 10:21:00,81.3,68.0,29.97,SW,225,19.0,19.0,67,0.00,,,0.01,meteohub,2013-03-17 14:21:00,
2013-03-17 10:22:00,81.3,68.0,29.97,NW,315,11.0,16.0,67,0.00,,,0.01,meteohub,2013-03-17 14:22:00,
2013-03-17 10:24:00,81.7,68.0,29.97,SW,225,12.0,16.0,67,0.00,,,0.01,meteohub,2013-03-17 14:24:00,
2013-03-17 10:27:00,81.9,68.0,29.97,West,270,15.0,19.0,66,0.00,,,0.01,meteohub,2013-03-17 14:27:00,
2013-03-17 10:28:00,81.9,68.0,29.97,SW,225,11.0,19.0,66,0.00,,,0.01,meteohub,2013-03-17 14:28:00,
2013-03-17 10:32:00,81.3,68.2,29.97,West,270,13.0,19.0,67,0.00,,,0.01,meteohub,2013-03-17 14:32:00,
2013-03-17 10:33:00,81.3,68.2,29.97,West,270,13.0,19.0,67,0.00,,,0.01,meteohub,2013-03-17 14:33:00,
2013-03-17 10:34:00,81.5,68.5,29.97,WSW,248,16.0,19.0,66,0.00,,,0.01,meteohub,2013-03-17 14:34:00,
2013-03-17 10:37:00,81.7,68.5,29.97,NW,315,13.0,19.0,67,0.00,,,0.01,meteohub,2013-03-17 14:37:00,
2013-03-17 10:38:00,82.2,68.2,29.96,North,0,14.0,19.0,67,0.00,,,0.01,meteohub,2013-03-17 14:38:00,
2013-03-17 10:39:00,82.4,68.2,29.97,West,270,14.0,19.0,67,0.00,,,0.01,meteohub,2013-03-17 14:39:00,
2013-03-17 10:40:00,82.6,68.5,29.97,ESE,113,15.0,19.0,66,0.00,,,0.01,meteohub,2013-03-17 14:40:00,
2013-03-17 10:42:00,82.6,68.2,29.96,SW,225,14.0,18.0,65,0.00,,,0.01,meteohub,2013-03-17 14:42:00,
2013-03-17 10:44:00,82.2,68.2,29.97,SW,225,11.0,18.0,65,0.00,,,0.01,meteohub,2013-03-17 14:44:00,
2013-03-17 10:45:00,82.0,68.2,29.97,West,270,13.0,18.0,65,0.00,,,0.01,meteohub,2013-03-17 14:45:00,
2013-03-17 10:48:00,80.8,68.2,29.97,SW,225,14.0,17.0,68,0.00,,,0.01,meteohub,2013-03-17 14:48:00,
2013-03-17 10:49:00,80.8,68.2,29.97,South,180,11.0,17.0,69,0.00,,,0.01,meteohub,2013-03-17 14:49:00,
2013-03-17 10:52:00,81.3,68.9,29.96,West,270,16.0,17.0,69,0.00,,,0.01,meteohub,2013-03-17 14:52:00,
2013-03-17 10:53:00,81.3,68.9,29.97,NW,315,13.0,17.0,68,0.00,,,0.01,meteohub,2013-03-17 14:53:00,
2013-03-17 10:57:00,81.1,68.9,29.97,NW,315,10.0,17.0,70,0.00,,,0.01,meteohub,2013-03-17 14:57:00,
2013-03-17 10:59:00,81.5,69.1,29.96,SW,225,15.0,17.0,69,0.00,,,0.01,meteohub,2013-03-17 14:59:00,
2013-03-17 11:03:00,81.5,68.9,29.97,North,0,12.0,17.0,69,0.00,,,0.01,meteohub,2013-03-17 15:03:00,
2013-03-17 11:04:00,81.7,68.7,29.96,South,180,12.0,17.0,68,0.00,,,0.01,meteohub,2013-03-17 15:04:00,
2013-03-17 11:07:00,81.9,68.9,29.97,West,270,8.0,17.0,68,0.00,,,0.01,meteohub,2013-03-17 15:07:00,
2013-03-17 11:09:00,82.2,69.3,29.96,SW,225,15.0,17.0,68,0.00,,,0.01,meteohub,2013-03-17 15:09:00,
2013-03-17 11:12:00,82.4,69.3,29.97,West,270,12.0,17.0,67,0.00,,,0.01,meteohub,2013-03-17 15:12:00,
2013-03-17 11:14:00,82.0,69.1,29.97,North,0,15.0,17.0,67,0.00,,,0.01,meteohub,2013-03-17 15:14:00,
2013-03-17 11:15:00,81.9,68.5,29.97,SW,225,11.0,17.0,67,0.00,,,0.01,meteohub,2013-03-17 15:15:00,
2013-03-17 11:17:00,81.9,68.5,29.96,NW,315,11.0,15.0,68,0.00,,,0.01,meteohub,2013-03-17 15:17:00,
2013-03-17 11:21:00,82.4,69.1,29.96,SW,225,10.0,15.0,67,0.00,,,0.01,meteohub,2013-03-17 15:21:00,
2013-03-17 11:22:00,82.8,69.1,29.96,West,270,12.0,15.0,67,0.00,,,0.01,meteohub,2013-03-17 15:22:00,
2013-03-17 11:23:00,82.8,69.1,29.96,West,270,10.0,15.0,67,0.00,,,0.01,meteohub,2013-03-17 15:23:00,
2013-03-17 11:27:00,82.0,69.1,29.96,SSW,203,11.0,15.0,68,0.00,,,0.01,meteohub,2013-03-17 15:27:00,
2013-03-17 11:28:00,82.0,69.1,29.96,SSW,203,11.0,15.0,68,0.00,,,0.01,meteohub,2013-03-17 15:28:00,
2013-03-17 11:29:00,82.0,69.1,29.96,SW,225,15.0,15.0,68,0.00,,,0.01,meteohub,2013-03-17 15:29:00,
2013-03-17 11:33:00,82.0,68.5,29.96,West,270,16.0,16.0,67,0.00,,,0.01,meteohub,2013-03-17 15:33:00,
2013-03-17 11:34:00,82.0,68.5,29.96,West,270,13.0,16.0,67,0.00,,,0.01,meteohub,2013-03-17 15:34:00,
2013-03-17 11:37:00,82.0,68.5,29.96,SW,225,15.0,17.0,66,0.00,,,0.01,meteohub,2013-03-17 15:37:00,
2013-03-17 11:39:00,81.9,68.2,29.96,SW,225,15.0,17.0,66,0.00,,,0.01,meteohub,2013-03-17 15:39:00,
2013-03-17 11:41:00,81.5,68.2,29.96,West,270,12.0,17.0,67,0.00,,,0.01,meteohub,2013-03-17 15:41:00,
2013-03-17 11:44:00,81.3,68.2,29.96,SW,225,14.0,17.0,68,0.00,,,0.01,meteohub,2013-03-17 15:44:00,
2013-03-17 11:45:00,81.3,68.2,29.96,SW,225,13.0,17.0,67,0.00,,,0.01,meteohub,2013-03-17 15:45:00,
2013-03-17 11:47:00,81.5,68.2,29.96,SW,225,12.0,20.0,68,0.00,,,0.01,meteohub,2013-03-17 15:47:00,
2013-03-17 11:50:00,81.5,68.5,29.95,West,270,15.0,20.0,68,0.00,,,0.01,meteohub,2013-03-17 15:50:00,
2013-03-17 11:51:00,81.3,68.5,29.95,WNW,293,15.0,20.0,68,0.00,,,0.01,meteohub,2013-03-17 15:51:00,
2013-03-17 11:55:00,81.7,68.5,29.95,WSW,248,11.0,20.0,68,0.00,,,0.01,meteohub,2013-03-17 15:55:00,
2013-03-17 11:56:00,81.9,68.5,29.95,SW,225,11.0,20.0,68,0.00,,,0.01,meteohub,2013-03-17 15:56:00,
2013-03-17 11:57:00,82.0,68.5,29.95,SW,225,16.0,20.0,68,0.00,,,0.01,meteohub,2013-03-17 15:57:00,
2013-03-17 12:01:00,82.0,68.7,29.95,SW,225,18.0,18.0,67,0.00,,,0.01,meteohub,2013-03-17 16:01:00,
2013-03-17 12:02:00,82.0,68.7,29.95,WNW,293,15.0,17.0,67,0.00,,,0.01,meteohub,2013-03-17 16:02:00,
2013-03-17 12:03:00,82.0,68.7,29.95,SW,225,14.0,17.0,67,0.00,,,0.01,meteohub,2013-03-17 16:03:00,
2013-03-17 12:06:00,82.2,68.0,29.95,West,270,15.0,18.0,65,0.00,,,0.01,meteohub,2013-03-17 16:06:00,
2013-03-17 12:08:00,82.6,68.5,29.95,SW,225,17.0,18.0,66,0.00,,,0.01,meteohub,2013-03-17 16:08:00,
2013-03-17 12:09:00,82.9,68.4,29.95,South,180,15.0,18.0,65,0.00,,,0.01,meteohub,2013-03-17 16:09:00,
2013-03-17 12:10:00,83.1,68.5,29.94,SSW,203,10.0,18.0,65,0.00,,,0.01,meteohub,2013-03-17 16:10:00,
2013-03-17 12:13:00,83.8,68.5,29.95,SW,225,17.0,18.0,64,0.00,,,0.01,meteohub,2013-03-17 16:13:00,
2013-03-17 12:17:00,83.5,68.2,29.95,SW,225,16.0,18.0,64,0.00,,,0.01,meteohub,2013-03-17 16:17:00,
2013-03-17 12:18:00,83.5,68.4,29.94,NW,315,17.0,18.0,63,0.00,,,0.01,meteohub,2013-03-17 16:18:00,
2013-03-17 12:22:00,82.9,68.4,29.94,West,270,20.0,20.0,65,0.00,,,0.01,meteohub,2013-03-17 16:22:00,
2013-03-17 12:23:00,83.1,68.4,29.94,SW,225,15.0,19.0,64,0.00,,,0.01,meteohub,2013-03-17 16:23:00,
2013-03-17 12:24:00,83.1,68.2,29.94,NW,315,16.0,19.0,64,0.00,,,0.01,meteohub,2013-03-17 16:24:00,
2013-03-17 12:25:00,83.1,68.0,29.94,SW,225,19.0,19.0,64,0.00,,,0.01,meteohub,2013-03-17 16:25:00,
2013-03-17 12:27:00,83.1,68.5,29.94,South,180,17.0,20.0,64,0.00,,,0.01,meteohub,2013-03-17 16:27:00,
2013-03-17 12:30:00,83.1,68.5,29.94,West,270,13.0,20.0,65,0.00,,,0.01,meteohub,2013-03-17 16:30:00,
2013-03-17 12:32:00,83.1,68.5,29.94,West,270,12.0,20.0,65,0.00,,,0.01,meteohub,2013-03-17 16:32:00,
2013-03-17 12:33:00,83.1,68.5,29.93,SW,225,15.0,20.0,65,0.00,,,0.01,meteohub,2013-03-17 16:33:00,
2013-03-17 12:34:00,83.1,68.5,29.94,NW,315,13.0,20.0,65,0.00,,,0.01,meteohub,2013-03-17 16:34:00,
2013-03-17 12:37:00,83.5,68.7,29.94,SSW,203,20.0,20.0,64,0.00,,,0.01,meteohub,2013-03-17 16:37:00,
2013-03-17 12:40:00,83.1,68.4,29.94,SW,225,13.0,20.0,63,0.00,,,0.01,meteohub,2013-03-17 16:40:00,
2013-03-17 12:42:00,82.9,68.7,29.93,SW,225,12.0,20.0,66,0.00,,,0.01,meteohub,2013-03-17 16:42:00,
2013-03-17 12:43:00,83.1,68.9,29.93,West,270,11.0,20.0,66,0.00,,,0.01,meteohub,2013-03-17 16:43:00,
2013-03-17 12:47:00,83.8,68.9,29.93,SW,225,16.0,20.0,65,0.00,,,0.01,meteohub,2013-03-17 16:47:00,
2013-03-17 12:49:00,83.5,68.9,29.93,SW,225,15.0,20.0,64,0.00,,,0.01,meteohub,2013-03-17 16:49:00,
2013-03-17 12:53:00,82.8,68.5,29.92,SW,225,16.0,20.0,65,0.00,,,0.01,meteohub,2013-03-17 16:53:00,
2013-03-17 12:55:00,82.6,68.5,29.92,West,270,16.0,20.0,65,0.00,,,0.01,meteohub,2013-03-17 16:55:00,
2013-03-17 12:56:00,82.6,68.5,29.92,SW,225,13.0,17.0,65,0.00,,,0.01,meteohub,2013-03-17 16:56:00,
2013-03-17 12:57:00,82.8,68.5,29.92,SW,225,20.0,20.0,65,0.00,,,0.01,meteohub,2013-03-17 16:57:00,
2013-03-17 12:58:00,82.6,68.5,29.92,NW,315,14.0,17.0,65,0.00,,,0.01,meteohub,2013-03-17 16:58:00,
2013-03-17 13:02:00,82.6,68.5,29.92,SW,225,19.0,20.0,66,0.00,,,0.01,meteohub,2013-03-17 17:02:00,
2013-03-17 13:04:00,82.8,68.9,29.92,SW,225,16.0,20.0,65,0.00,,,0.01,meteohub,2013-03-17 17:04:00,
2013-03-17 13:05:00,82.8,68.7,29.92,NW,315,10.0,20.0,65,0.00,,,0.01,meteohub,2013-03-17 17:05:00,
2013-03-17 13:09:00,82.9,68.0,29.92,SW,225,22.0,22.0,64,0.00,,,0.01,meteohub,2013-03-17 17:09:00,
2013-03-17 13:10:00,82.9,68.0,29.92,SW,225,12.0,20.0,63,0.00,,,0.01,meteohub,2013-03-17 17:10:00,
2013-03-17 13:12:00,82.9,68.0,29.92,SW,225,16.0,20.0,63,0.00,,,0.01,meteohub,2013-03-17 17:12:00,
2013-03-17 13:15:00,82.8,68.0,29.91,West,270,15.0,20.0,63,0.00,,,0.01,meteohub,2013-03-17 17:15:00,
2013-03-17 13:16:00,82.8,68.0,29.92,SW,225,17.0,22.0,63,0.00,,,0.01,meteohub,2013-03-17 17:16:00,
2013-03-17 13:17:00,82.8,68.0,29.91,NW,315,13.0,22.0,63,0.00,,,0.01,meteohub,2013-03-17 17:17:00,
2013-03-17 13:22:00,82.4,67.8,29.91,SW,225,17.0,22.0,63,0.00,,,0.01,meteohub,2013-03-17 17:22:00,
2013-03-17 13:23:00,82.6,67.8,29.91,SSW,203,15.0,22.0,64,0.00,,,0.01,meteohub,2013-03-17 17:23:00,
2013-03-17 13:27:00,82.4,67.8,29.91,SW,225,17.0,17.0,64,0.00,,,0.01,meteohub,2013-03-17 17:27:00,
2013-03-17 13:28:00,82.2,67.8,29.91,SW,225,14.0,17.0,64,0.00,,,0.01,meteohub,2013-03-17 17:28:00,
2013-03-17 13:29:00,82.2,67.8,29.91,SW,225,15.0,17.0,64,0.00,,,0.01,meteohub,2013-03-17 17:29:00,
2013-03-17 13:32:00,82.6,67.8,29.91,SW,225,14.0,19.0,64,0.00,,,0.01,meteohub,2013-03-17 17:32:00,
2013-03-17 13:33:00,83.1,68.4,29.91,SW,225,16.0,19.0,65,0.00,,,0.01,meteohub,2013-03-17 17:33:00,
2013-03-17 13:35:00,83.1,68.4,29.91,NW,315,11.0,19.0,63,0.00,,,0.01,meteohub,2013-03-17 17:35:00,
2013-03-17 13:39:00,83.1,68.0,29.91,SW,225,15.0,19.0,63,0.00,,,0.01,meteohub,2013-03-17 17:39:00,
2013-03-17 13:41:00,82.9,68.0,29.91,SSW,203,18.0,19.0,64,0.00,,,0.01,meteohub,2013-03-17 17:41:00,
2013-03-17 13:42:00,82.8,68.0,29.91,SW,225,18.0,19.0,63,0.00,,,0.01,meteohub,2013-03-17 17:42:00,
2013-03-17 13:45:00,82.8,68.0,29.90,SW,225,17.0,19.0,63,0.00,,,0.01,meteohub,2013-03-17 17:45:00,
2013-03-17 13:47:00,82.4,68.0,29.91,SW,225,18.0,19.0,63,0.00,,,0.01,meteohub,2013-03-17 17:47:00,
2013-03-17 13:48:00,82.2,68.0,29.91,SW,225,16.0,19.0,64,0.00,,,0.01,meteohub,2013-03-17 17:48:00,
2013-03-17 13:50:00,82.2,68.0,29.91,South,180,11.0,19.0,64,0.00,,,0.01,meteohub,2013-03-17 17:50:00,
2013-03-17 13:54:00,83.7,68.0,29.90,WSW,248,14.0,19.0,63,0.00,,,0.01,meteohub,2013-03-17 17:54:00,
2013-03-17 13:55:00,83.8,68.0,29.91,South,180,15.0,19.0,61,0.00,,,0.01,meteohub,2013-03-17 17:55:00,
2013-03-17 13:56:00,83.5,68.0,29.90,NW,315,21.0,21.0,61,0.00,,,0.01,meteohub,2013-03-17 17:56:00,
2013-03-17 13:58:00,83.1,68.0,29.90,NW,315,16.0,19.0,62,0.00,,,0.01,meteohub,2013-03-17 17:58:00,
2013-03-17 14:00:00,83.1,68.2,29.90,South,180,15.0,19.0,63,0.00,,,0.01,meteohub,2013-03-17 18:00:00,
2013-03-17 14:02:00,83.1,68.2,29.90,North,0,14.0,21.0,63,0.00,,,0.01,meteohub,2013-03-17 18:02:00,
2013-03-17 14:03:00,83.5,68.2,29.89,NW,315,15.0,21.0,63,0.00,,,0.01,meteohub,2013-03-17 18:03:00,
2013-03-17 14:06:00,83.8,68.2,29.89,West,270,17.0,21.0,62,0.00,,,0.01,meteohub,2013-03-17 18:06:00,
2013-03-17 14:07:00,84.0,68.2,29.89,South,180,18.0,21.0,63,0.00,,,0.01,meteohub,2013-03-17 18:07:00,
2013-03-17 14:09:00,83.5,68.9,29.89,NW,315,15.0,21.0,65,0.00,,,0.01,meteohub,2013-03-17 18:09:00,
2013-03-17 14:11:00,83.5,68.2,29.89,SW,225,15.0,21.0,62,0.00,,,0.01,meteohub,2013-03-17 18:11:00,
2013-03-17 14:12:00,83.1,68.4,29.89,SW,225,11.0,21.0,63,0.00,,,0.01,meteohub,2013-03-17 18:12:00,
2013-03-17 14:13:00,83.5,68.4,29.89,West,270,12.0,21.0,64,0.00,,,0.01,meteohub,2013-03-17 18:13:00,
2013-03-17 14:17:00,83.5,68.4,29.89,SW,225,20.0,20.0,62,0.00,,,0.01,meteohub,2013-03-17 18:17:00,
2013-03-17 14:20:00,83.1,67.8,29.89,SW,225,18.0,19.0,61,0.00,,,0.01,meteohub,2013-03-17 18:20:00,
2013-03-17 14:22:00,83.1,67.8,29.89,SW,225,17.0,20.0,62,0.00,,,0.01,meteohub,2013-03-17 18:22:00,
2013-03-17 14:27:00,83.5,68.4,29.88,SW,225,15.0,22.0,64,0.00,,,0.01,meteohub,2013-03-17 18:27:00,
2013-03-17 14:28:00,83.1,68.4,29.88,SW,225,19.0,22.0,64,0.00,,,0.01,meteohub,2013-03-17 18:28:00,
2013-03-17 14:32:00,83.1,68.4,29.88,South,180,19.0,22.0,63,0.00,,,0.01,meteohub,2013-03-17 18:32:00,
2013-03-17 14:33:00,82.9,68.4,29.88,NW,315,14.0,22.0,63,0.00,,,0.01,meteohub,2013-03-17 18:33:00,
2013-03-17 14:34:00,83.1,68.4,29.88,West,270,11.0,22.0,63,0.00,,,0.01,meteohub,2013-03-17 18:34:00,
2013-03-17 14:37:00,83.7,68.4,29.88,SW,225,17.0,22.0,61,0.00,,,0.01,meteohub,2013-03-17 18:37:00,
2013-03-17 14:39:00,83.5,67.8,29.88,SW,225,21.0,22.0,61,0.00,,,0.01,meteohub,2013-03-17 18:39:00,
2013-03-17 14:42:00,82.9,67.8,29.88,SW,225,17.0,21.0,62,0.00,,,0.01,meteohub,2013-03-17 18:42:00,
2013-03-17 14:47:00,83.1,67.8,29.88,South,180,14.0,21.0,63,0.00,,,0.01,meteohub,2013-03-17 18:47:00,
2013-03-17 14:48:00,83.5,67.8,29.88,South,180,17.0,21.0,63,0.00,,,0.01,meteohub,2013-03-17 18:48:00,
2013-03-17 14:49:00,83.8,68.0,29.88,WSW,248,15.0,21.0,63,0.00,,,0.01,meteohub,2013-03-17 18:49:00,
2013-03-17 14:52:00,83.8,68.5,29.88,SSW,203,17.0,21.0,63,0.00,,,0.01,meteohub,2013-03-17 18:52:00,
2013-03-17 14:54:00,83.1,69.1,29.88,South,180,17.0,21.0,65,0.00,,,0.01,meteohub,2013-03-17 18:54:00,
2013-03-17 14:55:00,83.1,69.1,29.88,South,180,17.0,21.0,65,0.00,,,0.01,meteohub,2013-03-17 18:55:00,
2013-03-17 14:58:00,83.1,69.1,29.87,SW,225,22.0,22.0,66,0.00,,,0.01,meteohub,2013-03-17 18:58:00,
2013-03-17 15:01:00,83.1,69.4,29.87,SSW,203,17.0,18.0,66,0.00,,,0.01,meteohub,2013-03-17 19:01:00,
2013-03-17 15:02:00,83.5,69.4,29.87,SW,225,18.0,18.0,66,0.00,,,0.01,meteohub,2013-03-17 19:02:00,
2013-03-17 15:03:00,83.1,69.4,29.88,SW,225,20.0,20.0,66,0.00,,,0.01,meteohub,2013-03-17 19:03:00,
2013-03-17 15:07:00,83.1,69.4,29.87,WSW,248,17.0,22.0,66,0.00,,,0.01,meteohub,2013-03-17 19:07:00,
2013-03-17 15:10:00,83.1,69.4,29.87,West,270,15.0,22.0,66,0.00,,,0.01,meteohub,2013-03-17 19:10:00,
2013-03-17 15:12:00,83.1,69.4,29.87,SW,225,15.0,22.0,67,0.00,,,0.01,meteohub,2013-03-17 19:12:00,
2013-03-17 15:14:00,84.0,70.0,29.87,SW,225,14.0,22.0,66,0.00,,,0.01,meteohub,2013-03-17 19:14:00,
2013-03-17 15:17:00,83.7,69.6,29.87,SW,225,12.0,21.0,65,0.00,,,0.01,meteohub,2013-03-17 19:17:00,
2013-03-17 15:21:00,83.8,69.6,29.87,NW,315,19.0,21.0,65,0.00,,,0.01,meteohub,2013-03-17 19:21:00,
2013-03-17 15:22:00,84.0,69.6,29.87,West,270,12.0,21.0,65,0.00,,,0.01,meteohub,2013-03-17 19:22:00,
2013-03-17 15:24:00,84.2,69.6,29.87,SW,225,13.0,21.0,64,0.00,,,0.01,meteohub,2013-03-17 19:24:00,
2013-03-17 15:25:00,84.4,69.6,29.87,WSW,248,12.0,21.0,64,0.00,,,0.01,meteohub,2013-03-17 19:25:00,
2013-03-17 15:27:00,84.7,69.6,29.87,SW,225,17.0,19.0,64,0.00,,,0.01,meteohub,2013-03-17 19:27:00,
2013-03-17 15:29:00,84.6,69.6,29.87,South,180,21.0,21.0,64,0.00,,,0.01,meteohub,2013-03-17 19:29:00,
2013-03-17 15:32:00,84.4,69.8,29.87,West,270,17.0,19.0,64,0.00,,,0.01,meteohub,2013-03-17 19:32:00,
2013-03-17 15:35:00,83.5,70.0,29.87,South,180,10.0,19.0,67,0.00,,,0.01,meteohub,2013-03-17 19:35:00,
2013-03-17 15:37:00,84.0,70.0,29.87,West,270,16.0,21.0,66,0.00,,,0.01,meteohub,2013-03-17 19:37:00,
2013-03-17 15:42:00,83.5,68.9,29.87,North,0,16.0,21.0,63,0.00,,,0.01,meteohub,2013-03-17 19:42:00,
2013-03-17 15:43:00,83.1,68.9,29.86,SW,225,14.0,21.0,64,0.00,,,0.01,meteohub,2013-03-17 19:43:00,
2013-03-17 15:44:00,83.1,68.7,29.87,SW,225,17.0,21.0,65,0.00,,,0.01,meteohub,2013-03-17 19:44:00,
2013-03-17 15:47:00,83.5,69.1,29.87,SW,225,14.0,20.0,65,0.00,,,0.01,meteohub,2013-03-17 19:47:00,
2013-03-17 15:49:00,83.7,69.1,29.87,NNW,338,19.0,20.0,65,0.00,,,0.01,meteohub,2013-03-17 19:49:00,
2013-03-17 15:51:00,82.9,68.7,29.87,SW,225,14.0,20.0,65,0.00,,,0.01,meteohub,2013-03-17 19:51:00,
2013-03-17 15:52:00,82.8,68.7,29.87,SW,225,15.0,20.0,65,0.00,,,0.01,meteohub,2013-03-17 19:52:00,
2013-03-17 15:54:00,82.9,69.1,29.87,NW,315,19.0,20.0,66,0.00,,,0.01,meteohub,2013-03-17 19:54:00,
2013-03-17 15:56:00,82.9,69.1,29.87,West,270,15.0,20.0,66,0.00,,,0.01,meteohub,2013-03-17 19:56:00,
2013-03-17 15:57:00,83.1,69.6,29.87,SW,225,19.0,20.0,66,0.00,,,0.01,meteohub,2013-03-17 19:57:00,
2013-03-17 16:01:00,82.9,68.7,29.87,SW,225,17.0,20.0,65,0.00,,,0.01,meteohub,2013-03-17 20:01:00,
2013-03-17 16:02:00,82.8,69.1,29.87,SW,225,15.0,20.0,66,0.00,,,0.01,meteohub,2013-03-17 20:02:00,
2013-03-17 16:06:00,82.2,69.4,29.87,WNW,293,9.0,21.0,67,0.00,,,0.01,meteohub,2013-03-17 20:06:00,
2013-03-17 16:07:00,82.6,69.4,29.87,SW,225,19.0,21.0,67,0.00,,,0.01,meteohub,2013-03-17 20:07:00,
2013-03-17 16:08:00,82.6,69.4,29.87,SW,225,19.0,21.0,67,0.00,,,0.01,meteohub,2013-03-17 20:08:00,
2013-03-17 16:09:00,82.6,69.4,29.87,WNW,293,13.0,21.0,66,0.00,,,0.01,meteohub,2013-03-17 20:09:00,
2013-03-17 16:12:00,82.8,69.4,29.87,North,0,12.0,21.0,66,0.00,,,0.01,meteohub,2013-03-17 20:12:00,
2013-03-17 16:13:00,82.9,69.4,29.87,SW,225,21.0,21.0,66,0.00,,,0.01,meteohub,2013-03-17 20:13:00,
2013-03-17 16:16:00,82.4,68.5,29.87,NW,315,15.0,21.0,65,0.00,,,0.01,meteohub,2013-03-17 20:16:00,
2013-03-17 16:17:00,82.4,68.5,29.87,NW,315,17.0,21.0,66,0.00,,,0.01,meteohub,2013-03-17 20:17:00,
2013-03-17 16:18:00,82.4,68.5,29.87,NW,315,11.0,21.0,66,0.00,,,0.01,meteohub,2013-03-17 20:18:00,
2013-03-17 16:21:00,82.8,68.5,29.87,WSW,248,16.0,21.0,64,0.00,,,0.01,meteohub,2013-03-17 20:21:00,
2013-03-17 16:23:00,82.6,67.6,29.87,West,270,17.0,21.0,63,0.00,,,0.01,meteohub,2013-03-17 20:23:00,
2013-03-17 16:24:00,82.4,67.6,29.87,NW,315,11.0,21.0,63,0.00,,,0.01,meteohub,2013-03-17 20:24:00,
2013-03-17 16:27:00,82.6,67.8,29.87,SW,225,16.0,21.0,64,0.00,,,0.01,meteohub,2013-03-17 20:27:00,
2013-03-17 16:28:00,82.6,67.6,29.87,NNW,338,17.0,21.0,64,0.00,,,0.01,meteohub,2013-03-17 20:28:00,
2013-03-17 16:30:00,82.2,68.0,29.87,SW,225,19.0,19.0,65,0.00,,,0.01,meteohub,2013-03-17 20:30:00,
2013-03-17 16:31:00,82.2,68.0,29.87,SW,225,19.0,19.0,65,0.00,,,0.01,meteohub,2013-03-17 20:31:00,
2013-03-17 16:32:00,82.0,68.4,29.87,NW,315,17.0,19.0,66,0.00,,,0.01,meteohub,2013-03-17 20:32:00,
2013-03-17 16:33:00,82.0,68.5,29.87,SW,225,19.0,19.0,66,0.00,,,0.01,meteohub,2013-03-17 20:33:00,
2013-03-17 16:37:00,82.6,68.4,29.87,SW,225,22.0,22.0,66,0.00,,,0.01,meteohub,2013-03-17 20:37:00,
2013-03-17 16:38:00,82.6,69.1,29.88,SW,225,21.0,21.0,66,0.00,,,0.01,meteohub,2013-03-17 20:38:00,
2013-03-17 16:39:00,82.6,69.1,29.87,South,180,17.0,19.0,66,0.00,,,0.01,meteohub,2013-03-17 20:39:00,
2013-03-17 16:42:00,82.6,69.1,29.87,NW,315,20.0,22.0,66,0.00,,,0.01,meteohub,2013-03-17 20:42:00,
2013-03-17 16:44:00,81.9,68.9,29.87,SW,225,13.0,22.0,67,0.00,,,0.01,meteohub,2013-03-17 20:44:00,
2013-03-17 16:45:00,81.7,68.9,29.87,SW,225,13.0,22.0,67,0.00,,,0.01,meteohub,2013-03-17 20:45:00,
2013-03-17 16:48:00,81.5,68.9,29.88,NW,315,17.0,22.0,67,0.00,,,0.01,meteohub,2013-03-17 20:48:00,
2013-03-17 16:49:00,81.3,68.4,29.88,SW,225,15.0,22.0,67,0.00,,,0.01,meteohub,2013-03-17 20:49:00,
2013-03-17 16:52:00,81.0,68.2,29.87,SSW,203,11.0,22.0,67,0.00,,,0.01,meteohub,2013-03-17 20:52:00,
2013-03-17 16:53:00,81.0,68.2,29.87,SW,225,15.0,22.0,67,0.00,,,0.01,meteohub,2013-03-17 20:53:00,
2013-03-17 16:55:00,80.8,68.2,29.88,NW,315,17.0,22.0,67,0.00,,,0.01,meteohub,2013-03-17 20:55:00,
2013-03-17 16:56:00,80.8,68.2,29.87,West,270,15.0,21.0,67,0.00,,,0.01,meteohub,2013-03-17 20:56:00,
2013-03-17 17:00:00,80.1,67.8,29.88,West,270,12.0,21.0,70,0.00,,,0.01,meteohub,2013-03-17 21:00:00,
2013-03-17 17:02:00,80.1,68.4,29.88,West,270,10.0,17.0,71,0.00,,,0.01,meteohub,2013-03-17 21:02:00,
2013-03-17 17:05:00,80.1,68.2,29.88,NW,315,11.0,17.0,70,0.00,,,0.01,meteohub,2013-03-17 21:05:00,
2013-03-17 17:07:00,79.9,68.2,29.88,NW,315,12.0,17.0,71,0.00,,,0.01,meteohub,2013-03-17 21:07:00,
2013-03-17 17:08:00,79.7,68.0,29.88,NW,315,11.0,17.0,72,0.00,,,0.01,meteohub,2013-03-17 21:08:00,
2013-03-17 17:11:00,79.7,68.0,29.88,NW,315,9.0,15.0,72,0.00,,,0.01,meteohub,2013-03-17 21:11:00,
2013-03-17 17:12:00,79.7,68.0,29.88,West,270,11.0,15.0,72,0.00,,,0.01,meteohub,2013-03-17 21:12:00,
2013-03-17 17:13:00,79.7,68.4,29.88,NW,315,13.0,15.0,72,0.00,,,0.01,meteohub,2013-03-17 21:13:00,
2013-03-17 17:17:00,79.5,68.4,29.88,SW,225,13.0,15.0,72,0.00,,,0.01,meteohub,2013-03-17 21:17:00,
2013-03-17 17:18:00,79.5,68.2,29.88,NW,315,15.0,15.0,72,0.00,,,0.01,meteohub,2013-03-17 21:18:00,
2013-03-17 17:22:00,79.5,67.6,29.88,NW,315,15.0,15.0,72,0.00,,,0.01,meteohub,2013-03-17 21:22:00,
2013-03-17 17:23:00,79.7,67.6,29.88,NW,315,10.0,15.0,70,0.00,,,0.01,meteohub,2013-03-17 21:23:00,
2013-03-17 17:24:00,79.7,67.6,29.88,NW,315,10.0,15.0,70,0.00,,,0.01,meteohub,2013-03-17 21:24:00,
2013-03-17 17:27:00,80.1,67.1,29.88,West,270,11.0,15.0,69,0.00,,,0.01,meteohub,2013-03-17 21:27:00,
2013-03-17 17:29:00,80.4,67.1,29.88,West,270,15.0,15.0,68,0.00,,,0.01,meteohub,2013-03-17 21:29:00,
2013-03-17 17:32:00,80.4,67.1,29.88,NW,315,15.0,17.0,67,0.00,,,0.01,meteohub,2013-03-17 21:32:00,
2013-03-17 17:34:00,80.4,67.1,29.88,NW,315,17.0,17.0,68,0.00,,,0.01,meteohub,2013-03-17 21:34:00,
2013-03-17 17:35:00,80.4,67.1,29.88,NW,315,17.0,17.0,68,0.00,,,0.01,meteohub,2013-03-17 21:35:00,
2013-03-17 17:37:00,80.2,67.5,29.88,WSW,248,14.0,17.0,69,0.00,,,0.01,meteohub,2013-03-17 21:37:00,
2013-03-17 17:40:00,80.1,67.5,29.88,NW,315,13.0,17.0,69,0.00,,,0.01,meteohub,2013-03-17 21:40:00,
2013-03-17 17:41:00,80.1,67.5,29.88,WNW,293,10.0,21.0,69,0.00,,,0.01,meteohub,2013-03-17 21:41:00,
2013-03-17 17:42:00,80.1,67.5,29.88,WNW,293,9.0,21.0,69,0.00,,,0.01,meteohub,2013-03-17 21:42:00,
2013-03-17 17:44:00,80.2,67.5,29.88,West,270,8.0,21.0,68,0.00,,,0.01,meteohub,2013-03-17 21:44:00,
2013-03-17 17:47:00,80.2,67.1,29.88,NW,315,13.0,21.0,68,0.00,,,0.01,meteohub,2013-03-17 21:47:00,
2013-03-17 17:48:00,80.2,66.9,29.88,SW,225,11.0,21.0,68,0.00,,,0.01,meteohub,2013-03-17 21:48:00,
2013-03-17 17:50:00,80.2,67.3,29.88,West,270,12.0,21.0,70,0.00,,,0.01,meteohub,2013-03-17 21:50:00,
2013-03-17 17:53:00,80.2,67.8,29.88,NW,315,11.0,21.0,71,0.00,,,0.01,meteohub,2013-03-17 21:53:00,
2013-03-17 17:54:00,80.1,67.3,29.88,West,270,17.0,21.0,69,0.00,,,0.01,meteohub,2013-03-17 21:54:00,
2013-03-17 17:56:00,79.9,67.3,29.88,WSW,248,15.0,19.0,69,0.00,,,0.01,meteohub,2013-03-17 21:56:00,
2013-03-17 17:59:00,79.5,67.3,29.88,NW,315,13.0,19.0,70,0.00,,,0.01,meteohub,2013-03-17 21:59:00,
2013-03-17 18:00:00,79.5,67.3,29.88,NW,315,13.0,19.0,71,0.00,,,0.01,meteohub,2013-03-17 22:00:00,
2013-03-17 18:01:00,79.5,67.6,29.88,NW,315,15.0,19.0,71,0.00,,,0.01,meteohub,2013-03-17 22:01:00,
2013-03-17 18:05:00,79.2,67.6,29.88,NNW,338,18.0,19.0,71,0.00,,,0.01,meteohub,2013-03-17 22:05:00,
2013-03-17 18:06:00,79.0,67.6,29.88,West,270,12.0,18.0,71,0.00,,,0.01,meteohub,2013-03-17 22:06:00,
2013-03-17 18:07:00,79.0,67.6,29.88,SW,225,15.0,18.0,71,0.00,,,0.01,meteohub,2013-03-17 22:07:00,
2013-03-17 18:12:00,78.8,67.5,29.88,West,270,16.0,18.0,72,0.00,,,0.01,meteohub,2013-03-17 22:12:00,
2013-03-17 18:13:00,78.8,67.5,29.88,West,270,16.0,18.0,72,0.00,,,0.01,meteohub,2013-03-17 22:13:00,
2013-03-17 18:14:00,78.8,67.5,29.88,NW,315,11.0,18.0,72,0.00,,,0.01,meteohub,2013-03-17 22:14:00,
2013-03-17 18:18:00,78.6,67.5,29.88,West,270,11.0,18.0,72,0.00,,,0.01,meteohub,2013-03-17 22:18:00,
2013-03-17 18:19:00,78.6,67.3,29.89,West,270,16.0,18.0,73,0.00,,,0.01,meteohub,2013-03-17 22:19:00,
2013-03-17 18:20:00,78.6,67.3,29.89,West,270,16.0,18.0,73,0.00,,,0.01,meteohub,2013-03-17 22:20:00,
2013-03-17 18:22:00,78.3,67.3,29.88,SW,225,19.0,19.0,73,0.00,,,0.01,meteohub,2013-03-17 22:22:00,
2013-03-17 18:24:00,78.3,67.3,29.88,WNW,293,15.0,16.0,73,0.00,,,0.01,meteohub,2013-03-17 22:24:00,
2013-03-17 18:25:00,78.1,67.1,29.88,South,180,13.0,16.0,73,0.00,,,0.01,meteohub,2013-03-17 22:25:00,
2013-03-17 18:28:00,77.9,67.1,29.88,SW,225,17.0,19.0,73,0.00,,,0.01,meteohub,2013-03-17 22:28:00,
2013-03-17 18:29:00,77.9,67.1,29.88,NW,315,14.0,19.0,73,0.00,,,0.01,meteohub,2013-03-17 22:29:00,
2013-03-17 18:32:00,77.7,67.5,29.88,NW,315,15.0,19.0,74,0.00,,,0.01,meteohub,2013-03-17 22:32:00,
2013-03-17 18:34:00,77.7,67.3,29.89,NW,315,15.0,19.0,75,0.00,,,0.01,meteohub,2013-03-17 22:34:00,
2013-03-17 18:35:00,77.7,67.3,29.88,NW,315,15.0,19.0,75,0.00,,,0.01,meteohub,2013-03-17 22:35:00,
2013-03-17 18:38:00,77.5,67.8,29.89,West,270,11.0,19.0,75,0.00,,,0.01,meteohub,2013-03-17 22:38:00,
2013-03-17 18:40:00,77.5,67.3,29.89,West,270,15.0,19.0,75,0.00,,,0.01,meteohub,2013-03-17 22:40:00,
2013-03-17 18:42:00,77.5,67.1,29.89,NW,315,12.0,19.0,75,0.00,,,0.01,meteohub,2013-03-17 22:42:00,
2013-03-17 18:43:00,77.5,67.1,29.89,West,270,13.0,19.0,75,0.00,,,0.01,meteohub,2013-03-17 22:43:00,
2013-03-17 18:44:00,77.5,67.1,29.89,West,270,13.0,19.0,75,0.00,,,0.01,meteohub,2013-03-17 22:44:00,
2013-03-17 18:47:00,77.4,67.5,29.89,West,270,17.0,19.0,75,0.00,,,0.01,meteohub,2013-03-17 22:47:00,
2013-03-17 18:48:00,77.4,67.6,29.89,West,270,13.0,19.0,75,0.00,,,0.01,meteohub,2013-03-17 22:48:00,
2013-03-17 18:49:00,77.4,67.6,29.89,WSW,248,15.0,19.0,75,0.00,,,0.01,meteohub,2013-03-17 22:49:00,
2013-03-17 18:50:00,77.4,67.5,29.89,West,270,18.0,19.0,75,0.00,,,0.01,meteohub,2013-03-17 22:50:00,
2013-03-17 18:54:00,77.4,67.5,29.89,NW,315,15.0,19.0,76,0.00,,,0.01,meteohub,2013-03-17 22:54:00,
2013-03-17 18:55:00,77.4,67.8,29.90,NW,315,19.0,19.0,76,0.00,,,0.01,meteohub,2013-03-17 22:55:00,
2013-03-17 18:56:00,77.4,67.8,29.89,WNW,293,11.0,21.0,76,0.00,,,0.01,meteohub,2013-03-17 22:56:00,
2013-03-17 19:01:00,77.4,67.8,29.90,NW,315,11.0,21.0,77,0.00,,,0.01,meteohub,2013-03-17 23:01:00,
2013-03-17 19:02:00,77.4,68.4,29.90,West,270,15.0,21.0,77,0.00,,,0.01,meteohub,2013-03-17 23:02:00,
2013-03-17 19:03:00,77.4,68.4,29.90,WSW,248,14.0,21.0,77,0.00,,,0.01,meteohub,2013-03-17 23:03:00,
2013-03-17 19:07:00,77.4,68.4,29.90,SW,225,12.0,21.0,78,0.00,,,0.01,meteohub,2013-03-17 23:07:00,
2013-03-17 19:08:00,77.4,68.2,29.89,West,270,17.0,21.0,78,0.00,,,0.01,meteohub,2013-03-17 23:08:00,
2013-03-17 19:09:00,77.4,68.5,29.89,SW,225,15.0,21.0,78,0.00,,,0.01,meteohub,2013-03-17 23:09:00,
2013-03-17 19:14:00,77.4,68.5,29.90,West,270,14.0,18.0,78,0.00,,,0.01,meteohub,2013-03-17 23:14:00,
2013-03-17 19:15:00,77.4,68.5,29.90,West,270,16.0,18.0,78,0.00,,,0.01,meteohub,2013-03-17 23:15:00,
2013-03-17 19:20:00,77.4,68.5,29.90,WNW,293,6.0,21.0,78,0.00,,,0.01,meteohub,2013-03-17 23:20:00,
2013-03-17 19:21:00,77.4,68.5,29.90,SW,225,7.0,21.0,78,0.00,,,0.01,meteohub,2013-03-17 23:21:00,
2013-03-17 19:22:00,77.2,68.5,29.90,WNW,293,17.0,21.0,78,0.00,,,0.01,meteohub,2013-03-17 23:22:00,
2013-03-17 19:26:00,77.2,68.4,29.90,SW,225,13.0,20.0,79,0.00,,,0.01,meteohub,2013-03-17 23:26:00,
2013-03-17 19:27:00,77.2,68.4,29.90,SW,225,13.0,20.0,79,0.00,,,0.01,meteohub,2013-03-17 23:27:00,
2013-03-17 19:28:00,77.2,68.4,29.90,West,270,14.0,20.0,79,0.00,,,0.01,meteohub,2013-03-17 23:28:00,
2013-03-17 19:29:00,77.2,68.5,29.90,NW,315,11.0,20.0,79,0.00,,,0.01,meteohub,2013-03-17 23:29:00,
2013-03-17 19:31:00,77.2,68.5,29.90,West,270,14.0,17.0,79,0.00,,,0.01,meteohub,2013-03-17 23:31:00,
2013-03-17 19:33:00,77.2,68.5,29.90,West,270,10.0,17.0,79,0.00,,,0.01,meteohub,2013-03-17 23:33:00,
2013-03-17 19:35:00,77.2,68.5,29.90,SW,225,15.0,17.0,80,0.00,,,0.01,meteohub,2013-03-17 23:35:00,
2013-03-17 19:37:00,77.2,68.5,29.91,NW,315,10.0,17.0,80,0.00,,,0.01,meteohub,2013-03-17 23:37:00,
2013-03-17 19:38:00,77.2,68.5,29.90,West,270,12.0,17.0,80,0.00,,,0.01,meteohub,2013-03-17 23:38:00,
2013-03-17 19:40:00,77.2,68.7,29.91,North,0,14.0,17.0,80,0.00,,,0.01,meteohub,2013-03-17 23:40:00,
2013-03-17 19:43:00,77.2,68.7,29.91,West,270,15.0,17.0,80,0.00,,,0.01,meteohub,2013-03-17 23:43:00,
2013-03-17 19:44:00,77.2,68.9,29.91,WSW,248,15.0,17.0,80,0.00,,,0.01,meteohub,2013-03-17 23:44:00,
2013-03-17 19:45:00,77.2,68.9,29.91,NW,315,8.0,15.0,80,0.00,,,0.01,meteohub,2013-03-17 23:45:00,
2013-03-17 19:48:00,77.2,68.9,29.91,West,270,8.0,15.0,80,0.00,,,0.01,meteohub,2013-03-17 23:48:00,
2013-03-17 19:49:00,77.2,68.9,29.91,West,270,11.0,15.0,80,0.00,,,0.01,meteohub,2013-03-17 23:49:00,
2013-03-17 19:50:00,77.2,68.9,29.91,North,0,15.0,17.0,79,0.00,,,0.01,meteohub,2013-03-17 23:50:00,
2013-03-17 19:52:00,77.2,69.1,29.91,NW,315,14.0,17.0,79,0.00,,,0.01,meteohub,2013-03-17 23:52:00,
2013-03-17 19:53:00,77.2,68.7,29.91,West,270,17.0,17.0,78,0.00,,,0.01,meteohub,2013-03-17 23:53:00,
2013-03-17 19:57:00,77.2,68.7,29.91,NW,315,12.0,17.0,78,0.00,,,0.01,meteohub,2013-03-17 23:57:00,
2013-03-17 19:58:00,77.2,68.7,29.91,WNW,293,13.0,17.0,78,0.00,,,0.01,meteohub,2013-03-17 23:58:00,
2013-03-17 19:59:00,77.2,68.7,29.91,NW,315,9.0,17.0,78,0.00,,,0.01,meteohub,2013-03-17 23:59:00,
2013-03-17 20:02:00,77.0,68.7,29.91,West,270,11.0,17.0,77,0.00,,,0.01,meteohub,2013-03-18 00:02:00,
2013-03-17 20:03:00,77.0,68.7,29.91,West,270,11.0,17.0,77,0.00,,,0.01,meteohub,2013-03-18 00:03:00,
2013-03-17 20:04:00,77.0,68.7,29.91,West,270,11.0,17.0,77,0.00,,,0.01,meteohub,2013-03-18 00:04:00,
2013-03-17 20:05:00,77.0,68.4,29.91,NW,315,12.0,17.0,77,0.00,,,0.00,meteohub,2013-03-18 00:05:00,
2013-03-17 20:09:00,77.0,68.4,29.91,West,270,18.0,18.0,77,0.00,,,0.00,meteohub,2013-03-18 00:09:00,
2013-03-17 20:10:00,77.0,68.4,29.91,NNW,338,15.0,22.0,77,0.00,,,0.00,meteohub,2013-03-18 00:10:00,
2013-03-17 20:11:00,77.0,68.4,29.91,NW,315,15.0,22.0,77,0.00,,,0.00,meteohub,2013-03-18 00:11:00,
2013-03-17 20:13:00,77.0,68.4,29.91,NW,315,18.0,22.0,77,0.00,,,0.00,meteohub,2013-03-18 00:13:00,
2013-03-17 20:15:00,77.0,68.4,29.91,SW,225,13.0,22.0,77,0.00,,,0.00,meteohub,2013-03-18 00:15:00,
2013-03-17 20:16:00,77.0,68.4,29.91,NW,315,15.0,22.0,77,0.00,,,0.00,meteohub,2013-03-18 00:16:00,
2013-03-17 20:17:00,77.0,68.4,29.91,NW,315,15.0,22.0,77,0.00,,,0.00,meteohub,2013-03-18 00:17:00,
2013-03-17 20:18:00,77.0,68.4,29.91,SW,225,18.0,22.0,77,0.00,,,0.00,meteohub,2013-03-18 00:18:00,
2013-03-17 20:22:00,77.0,68.4,29.91,NW,315,11.0,22.0,77,0.00,,,0.00,meteohub,2013-03-18 00:22:00,
2013-03-17 20:23:00,77.0,68.4,29.91,SSW,203,16.0,22.0,77,0.00,,,0.00,meteohub,2013-03-18 00:23:00,
2013-03-17 20:24:00,77.0,68.4,29.91,North,0,10.0,22.0,77,0.00,,,0.00,meteohub,2013-03-18 00:24:00,
2013-03-17 20:26:00,77.0,68.4,29.91,South,180,13.0,18.0,77,0.00,,,0.00,meteohub,2013-03-18 00:26:00,
2013-03-17 20:29:00,77.0,68.4,29.91,West,270,11.0,18.0,78,0.00,,,0.00,meteohub,2013-03-18 00:29:00,
2013-03-17 20:31:00,77.0,68.4,29.91,NW,315,13.0,18.0,78,0.00,,,0.00,meteohub,2013-03-18 00:31:00,
2013-03-17 20:32:00,77.0,68.4,29.91,West,270,11.0,18.0,79,0.00,,,0.00,meteohub,2013-03-18 00:32:00,
2013-03-17 20:35:00,77.0,68.5,29.91,NW,315,6.0,16.0,79,0.00,,,0.00,meteohub,2013-03-18 00:35:00,
2013-03-17 20:37:00,76.8,68.5,29.91,West,270,13.0,16.0,81,0.00,,,0.00,meteohub,2013-03-18 00:37:00,
2013-03-17 20:38:00,76.8,68.4,29.91,WNW,293,11.0,16.0,81,0.00,,,0.00,meteohub,2013-03-18 00:38:00,
2013-03-17 20:39:00,77.0,68.4,29.91,West,270,17.0,17.0,80,0.00,,,0.00,meteohub,2013-03-18 00:39:00,
2013-03-17 20:42:00,77.0,68.7,29.91,SW,225,15.0,15.0,80,0.00,,,0.00,meteohub,2013-03-18 00:42:00,
2013-03-17 20:43:00,77.0,68.7,29.91,NW,315,11.0,15.0,80,0.00,,,0.00,meteohub,2013-03-18 00:43:00,
2013-03-17 20:45:00,77.0,68.5,29.91,SW,225,13.0,17.0,80,0.00,,,0.00,meteohub,2013-03-18 00:45:00,
2013-03-17 20:47:00,77.0,68.5,29.91,WNW,293,15.0,17.0,80,0.00,,,0.00,meteohub,2013-03-18 00:47:00,
2013-03-17 20:49:00,77.0,68.5,29.91,NW,315,14.0,17.0,80,0.00,,,0.00,meteohub,2013-03-18 00:49:00,
2013-03-17 20:50:00,76.8,68.5,29.91,West,270,13.0,17.0,79,0.00,,,0.00,meteohub,2013-03-18 00:50:00,
2013-03-17 20:52:00,76.8,68.0,29.92,North,0,17.0,17.0,79,0.00,,,0.00,meteohub,2013-03-18 00:52:00,
2013-03-17 20:54:00,77.0,68.0,29.92,NW,315,14.0,17.0,77,0.00,,,0.00,meteohub,2013-03-18 00:54:00,
2013-03-17 20:57:00,76.8,68.0,29.91,NW,315,12.0,19.0,79,0.00,,,0.00,meteohub,2013-03-18 00:57:00,
2013-03-17 20:58:00,76.8,68.0,29.92,West,270,17.0,19.0,79,0.00,,,0.00,meteohub,2013-03-18 00:58:00,
2013-03-17 21:00:00,76.8,67.8,29.91,SW,225,11.0,19.0,79,0.00,,,0.00,meteohub,2013-03-18 01:00:00,
2013-03-17 21:01:00,76.8,68.4,29.91,SW,225,15.0,19.0,79,0.00,,,0.00,meteohub,2013-03-18 01:01:00,
2013-03-17 21:02:00,76.8,68.4,29.92,West,270,12.0,19.0,80,0.00,,,0.00,meteohub,2013-03-18 01:02:00,
2013-03-17 21:04:00,76.8,68.4,29.92,NW,315,15.0,19.0,80,0.00,,,0.00,meteohub,2013-03-18 01:04:00,
2013-03-17 21:06:00,76.8,68.4,29.92,West,270,12.0,21.0,80,0.00,,,0.00,meteohub,2013-03-18 01:06:00,
2013-03-17 21:07:00,76.8,68.4,29.92,SW,225,12.0,21.0,80,0.00,,,0.00,meteohub,2013-03-18 01:07:00,
2013-03-17 21:10:00,76.8,68.7,29.92,West,270,10.0,21.0,81,0.00,,,0.00,meteohub,2013-03-18 01:10:00,
2013-03-17 21:11:00,76.8,68.7,29.92,NW,315,8.0,21.0,81,0.00,,,0.00,meteohub,2013-03-18 01:11:00,
2013-03-17 21:13:00,76.8,68.7,29.92,NW,315,11.0,21.0,81,0.00,,,0.00,meteohub,2013-03-18 01:13:00,
2013-03-17 21:16:00,76.8,68.5,29.92,NW,315,16.0,17.0,81,0.00,,,0.00,meteohub,2013-03-18 01:16:00,
2013-03-17 21:17:00,76.8,68.5,29.92,NW,315,13.0,17.0,81,0.00,,,0.00,meteohub,2013-03-18 01:17:00,
2013-03-17 21:18:00,76.8,68.5,29.92,West,270,18.0,18.0,81,0.00,,,0.00,meteohub,2013-03-18 01:18:00,
2013-03-17 21:19:00,77.0,68.5,29.92,NW,315,15.0,17.0,80,0.00,,,0.00,meteohub,2013-03-18 01:19:00,
2013-03-17 21:22:00,76.8,68.5,29.92,SW,225,15.0,19.0,80,0.00,,,0.00,meteohub,2013-03-18 01:22:00,
2013-03-17 21:23:00,76.8,68.5,29.92,SW,225,11.0,19.0,80,0.00,,,0.00,meteohub,2013-03-18 01:23:00,
2013-03-17 21:24:00,76.8,68.2,29.92,West,270,15.0,19.0,79,0.00,,,0.00,meteohub,2013-03-18 01:24:00,
2013-03-17 21:25:00,77.0,68.2,29.92,NW,315,15.0,19.0,78,0.00,,,0.00,meteohub,2013-03-18 01:25:00,
2013-03-17 21:29:00,77.0,68.2,29.92,West,270,12.0,19.0,78,0.00,,,0.00,meteohub,2013-03-18 01:29:00,
2013-03-17 21:30:00,77.0,68.2,29.92,SW,225,13.0,18.0,78,0.00,,,0.00,meteohub,2013-03-18 01:30:00,
2013-03-17 21:32:00,77.0,68.2,29.92,WSW,248,11.0,18.0,78,0.00,,,0.00,meteohub,2013-03-18 01:32:00,
2013-03-17 21:34:00,76.8,68.0,29.93,SW,225,17.0,18.0,79,0.00,,,0.00,meteohub,2013-03-18 01:34:00,
2013-03-17 21:37:00,76.8,68.4,29.92,West,270,14.0,18.0,80,0.00,,,0.00,meteohub,2013-03-18 01:37:00,
2013-03-17 21:39:00,76.8,68.4,29.92,West,270,8.0,18.0,80,0.00,,,0.00,meteohub,2013-03-18 01:39:00,
2013-03-17 21:41:00,76.8,68.0,29.92,NW,315,14.0,18.0,79,0.00,,,0.00,meteohub,2013-03-18 01:41:00,
2013-03-17 21:42:00,76.6,68.0,29.92,NW,315,19.0,19.0,79,0.00,,,0.00,meteohub,2013-03-18 01:42:00,
2013-03-17 21:45:00,76.6,68.0,29.92,West,270,8.0,19.0,78,0.00,,,0.00,meteohub,2013-03-18 01:45:00,
2013-03-17 21:46:00,76.6,67.5,29.93,West,270,11.0,19.0,78,0.00,,,0.00,meteohub,2013-03-18 01:46:00,
2013-03-17 21:47:00,76.6,67.5,29.93,SW,225,17.0,19.0,78,0.00,,,0.00,meteohub,2013-03-18 01:47:00,
2013-03-17 21:51:00,76.8,67.5,29.92,NW,315,15.0,19.0,78,0.00,,,0.00,meteohub,2013-03-18 01:51:00,
2013-03-17 21:54:00,76.8,67.5,29.93,NW,315,14.0,19.0,78,0.00,,,0.00,meteohub,2013-03-18 01:54:00,
2013-03-17 21:57:00,76.8,67.5,29.93,NW,315,17.0,19.0,78,0.00,,,0.00,meteohub,2013-03-18 01:57:00,
2013-03-17 21:58:00,76.8,67.5,29.93,WSW,248,21.0,21.0,78,0.00,,,0.00,meteohub,2013-03-18 01:58:00,
2013-03-17 22:00:00,76.6,68.0,29.93,NW,315,17.0,19.0,79,0.00,,,0.00,meteohub,2013-03-18 02:00:00,
2013-03-17 22:02:00,76.6,68.0,29.93,WNW,293,14.0,21.0,80,0.00,,,0.00,meteohub,2013-03-18 02:02:00,
2013-03-17 22:05:00,76.3,68.0,29.93,West,270,17.0,21.0,81,0.00,,,0.00,meteohub,2013-03-18 02:05:00,
2013-03-17 22:07:00,76.3,68.4,29.93,WNW,293,12.0,21.0,81,0.00,,,0.00,meteohub,2013-03-18 02:07:00,
2013-03-17 22:08:00,76.3,68.4,29.93,WNW,293,15.0,21.0,81,0.00,,,0.00,meteohub,2013-03-18 02:08:00,
2013-03-17 22:12:00,76.5,68.0,29.93,West,270,16.0,21.0,80,0.00,,,0.00,meteohub,2013-03-18 02:12:00,
2013-03-17 22:13:00,76.5,68.0,29.93,NW,315,15.0,21.0,79,0.00,,,0.00,meteohub,2013-03-18 02:13:00,
2013-03-17 22:15:00,76.5,68.0,29.93,NW,315,18.0,21.0,79,0.00,,,0.00,meteohub,2013-03-18 02:15:00,
2013-03-17 22:16:00,76.5,68.2,29.93,SW,225,21.0,21.0,79,0.00,,,0.00,meteohub,2013-03-18 02:16:00,
2013-03-17 22:17:00,76.6,68.2,29.93,NW,315,17.0,18.0,79,0.00,,,0.00,meteohub,2013-03-18 02:17:00,
2013-03-17 22:19:00,76.6,68.2,29.93,SW,225,11.0,18.0,79,0.00,,,0.00,meteohub,2013-03-18 02:19:00,
2013-03-17 22:22:00,76.6,68.4,29.93,NW,315,11.0,21.0,78,0.00,,,0.00,meteohub,2013-03-18 02:22:00,
2013-03-17 22:23:00,76.6,68.4,29.93,West,270,14.0,21.0,78,0.00,,,0.00,meteohub,2013-03-18 02:23:00,
2013-03-17 22:24:00,76.6,68.4,29.93,West,270,14.0,21.0,78,0.00,,,0.00,meteohub,2013-03-18 02:24:00,
2013-03-17 22:25:00,76.6,68.5,29.93,West,270,10.0,21.0,79,0.00,,,0.00,meteohub,2013-03-18 02:25:00,
2013-03-17 22:27:00,76.5,68.0,29.93,WSW,248,11.0,21.0,79,0.00,,,0.00,meteohub,2013-03-18 02:27:00,
2013-03-17 22:28:00,76.5,68.0,29.93,NW,315,8.0,21.0,79,0.00,,,0.00,meteohub,2013-03-18 02:28:00,
2013-03-17 22:29:00,76.5,68.0,29.93,West,270,15.0,21.0,79,0.00,,,0.00,meteohub,2013-03-18 02:29:00,
2013-03-17 22:30:00,76.3,68.0,29.93,North,0,14.0,21.0,79,0.00,,,0.00,meteohub,2013-03-18 02:30:00,
2013-03-17 22:32:00,76.3,68.2,29.93,NW,315,11.0,21.0,80,0.00,,,0.00,meteohub,2013-03-18 02:32:00,
2013-03-17 22:35:00,76.1,68.2,29.93,West,270,12.0,17.0,81,0.00,,,0.00,meteohub,2013-03-18 02:35:00,
2013-03-17 22:36:00,76.1,68.2,29.93,West,270,12.0,17.0,81,0.00,,,0.00,meteohub,2013-03-18 02:36:00,
2013-03-17 22:37:00,76.1,68.4,29.93,NW,315,11.0,17.0,82,0.00,,,0.00,meteohub,2013-03-18 02:37:00,
2013-03-17 22:39:00,76.1,68.4,29.94,NW,315,8.0,17.0,82,0.00,,,0.00,meteohub,2013-03-18 02:39:00,
2013-03-17 22:42:00,76.1,68.4,29.94,NW,315,9.0,16.0,83,0.00,,,0.00,meteohub,2013-03-18 02:42:00,
2013-03-17 22:45:00,76.1,68.5,29.93,NW,315,25.0,25.0,84,0.00,,,0.00,meteohub,2013-03-18 02:45:00,
2013-03-17 22:47:00,75.7,68.5,29.94,NW,315,17.0,17.0,83,0.00,,,0.00,meteohub,2013-03-18 02:47:00,
2013-03-17 22:48:00,75.4,68.5,29.93,West,270,11.0,15.0,83,0.00,,,0.00,meteohub,2013-03-18 02:48:00,
2013-03-17 22:50:00,75.0,68.5,29.93,West,270,14.0,15.0,85,0.00,,,0.00,meteohub,2013-03-18 02:50:00,
2013-03-17 22:52:00,74.5,68.5,29.94,SW,225,12.0,25.0,86,0.00,,,0.00,meteohub,2013-03-18 02:52:00,
2013-03-17 22:54:00,74.3,68.7,29.94,West,270,12.0,25.0,87,0.00,,,0.00,meteohub,2013-03-18 02:54:00,
2013-03-17 22:55:00,74.1,68.7,29.94,SW,225,8.0,25.0,87,0.00,,,0.00,meteohub,2013-03-18 02:55:00,
2013-03-17 22:57:00,73.9,68.7,29.94,SW,225,10.0,25.0,88,0.00,,,0.00,meteohub,2013-03-18 02:57:00,
2013-03-17 22:59:00,73.9,68.7,29.94,West,270,11.0,25.0,88,0.00,,,0.00,meteohub,2013-03-18 02:59:00,
2013-03-17 23:01:00,73.9,68.7,29.94,NW,315,11.0,25.0,89,0.00,,,0.00,meteohub,2013-03-18 03:01:00,
2013-03-17 23:03:00,73.9,68.7,29.94,West,270,11.0,25.0,89,0.00,,,0.00,meteohub,2013-03-18 03:03:00,
2013-03-17 23:04:00,73.9,68.7,29.94,West,270,11.0,25.0,89,0.00,,,0.00,meteohub,2013-03-18 03:04:00,
2013-03-17 23:06:00,73.9,68.7,29.94,NW,315,9.0,15.0,90,0.00,,,0.00,meteohub,2013-03-18 03:06:00,
2013-03-17 23:08:00,73.9,68.7,29.93,WNW,293,9.0,15.0,89,0.00,,,0.00,meteohub,2013-03-18 03:08:00,
2013-03-17 23:09:00,74.1,68.7,29.94,SW,225,9.0,15.0,89,0.00,,,0.00,meteohub,2013-03-18 03:09:00,
2013-03-17 23:10:00,74.1,68.7,29.93,SW,225,8.0,15.0,89,0.00,,,0.00,meteohub,2013-03-18 03:10:00,
2013-03-17 23:12:00,74.1,68.7,29.94,West,270,8.0,13.0,89,0.00,,,0.00,meteohub,2013-03-18 03:12:00,
2013-03-17 23:14:00,73.9,68.9,29.94,NW,315,8.0,13.0,89,0.00,,,0.00,meteohub,2013-03-18 03:14:00,
2013-03-17 23:15:00,73.9,68.9,29.93,NW,315,8.0,13.0,88,0.00,,,0.00,meteohub,2013-03-18 03:15:00,
2013-03-17 23:16:00,73.9,68.9,29.94,West,270,8.0,13.0,88,0.00,,,0.00,meteohub,2013-03-18 03:16:00,
2013-03-17 23:17:00,73.9,68.7,29.94,West,270,8.0,13.0,88,0.00,,,0.00,meteohub,2013-03-18 03:17:00,
2013-03-17 23:21:00,73.9,68.9,29.94,West,270,11.0,11.0,86,0.00,,,0.00,meteohub,2013-03-18 03:21:00,
2013-03-17 23:22:00,73.9,68.9,29.94,NW,315,8.0,11.0,86,0.00,,,0.00,meteohub,2013-03-18 03:22:00,
2013-03-17 23:23:00,73.9,68.9,29.93,NW,315,9.0,11.0,86,0.00,,,0.00,meteohub,2013-03-18 03:23:00,
2013-03-17 23:27:00,73.9,68.9,29.93,West,270,8.0,11.0,85,0.00,,,0.00,meteohub,2013-03-18 03:27:00,
2013-03-17 23:28:00,73.9,68.9,29.93,NW,315,11.0,11.0,85,0.00,,,0.00,meteohub,2013-03-18 03:28:00,
2013-03-17 23:33:00,73.9,68.5,29.93,West,270,8.0,11.0,84,0.00,,,0.00,meteohub,2013-03-18 03:33:00,
2013-03-17 23:34:00,73.9,68.5,29.94,West,270,8.0,11.0,84,0.00,,,0.00,meteohub,2013-03-18 03:34:00,
2013-03-17 23:35:00,73.9,68.5,29.94,NW,315,5.0,11.0,84,0.00,,,0.00,meteohub,2013-03-18 03:35:00,
2013-03-17 23:37:00,73.8,68.5,29.93,WNW,293,8.0,11.0,84,0.00,,,0.00,meteohub,2013-03-18 03:37:00,
2013-03-17 23:39:00,73.8,68.5,29.93,North,0,7.0,11.0,84,0.00,,,0.00,meteohub,2013-03-18 03:39:00,
2013-03-17 23:43:00,73.8,68.5,29.93,West,270,9.0,11.0,84,0.00,,,0.00,meteohub,2013-03-18 03:43:00,
2013-03-17 23:45:00,73.8,68.5,29.93,NW,315,8.0,11.0,84,0.00,,,0.00,meteohub,2013-03-18 03:45:00,
2013-03-17 23:48:00,73.6,68.5,29.93,WNW,293,7.0,11.0,84,0.00,,,0.00,meteohub,2013-03-18 03:48:00,
2013-03-17 23:49:00,73.6,68.5,29.93,SW,225,8.0,11.0,84,0.00,,,0.00,meteohub,2013-03-18 03:49:00,
2013-03-17 23:51:00,73.6,68.5,29.93,West,270,11.0,11.0,84,0.00,,,0.00,meteohub,2013-03-18 03:51:00,
2013-03-17 23:52:00,73.6,68.5,29.93,NW,315,9.0,11.0,84,0.00,,,0.00,meteohub,2013-03-18 03:52:00,
2013-03-17 23:54:00,73.6,68.5,29.94,West,270,5.0,11.0,84,0.00,,,0.00,meteohub,2013-03-18 03:54:00,
2013-03-17 23:56:00,73.6,68.0,29.94,NW,315,9.0,11.0,84,0.00,,,0.00,meteohub,2013-03-18 03:56:00,
2013-03-17 23:57:00,73.6,68.0,29.94,NW,315,9.0,11.0,84,0.00,,,0.00,meteohub,2013-03-18 03:57:00,